GFSWCAN_prec_precacc12_219.txt.gz
Total_Precipitation_Accumulation
0.01 0.00 0.00 0.00 0.00 0.01 0.02 0.08 0.35 0.51 0.37 0.27 0.20 0.13 0.26 0.31 0.36 0.30 0.22 0.16 0.23 0.35 0.27 0.39 0.55 0.25 0.43 0.49 0.48 0.46 0.35 0.50 0.73 0.94 1.00 0.88 0.64 0.40 0.20 0.08 0.05 0.10 0.15 0.20 0.21 0.15 0.05 0.00 0.00 0.00 0.00 0.00 0.00 0.00
0.00 0.00 0.00 0.00 0.00 0.01 0.01 0.02 0.04 0.27 0.47 0.31 0.19 0.17 0.17 0.21 0.24 0.30 0.34 0.39 0.36 0.49 0.35 0.24 0.34 0.38 0.16 0.38 0.33 0.27 0.28 0.26 0.31 0.51 0.65 0.59 0.55 0.39 0.28 0.17 0.03 0.01 0.01 0.02 0.02 0.01 0.00 0.00 0.00 0.00 0.00 0.00 0.00 0.00
0.01 0.00 0.00 0.00 0.00 0.00 0.01 0.01 0.02 0.04 0.16 0.43 0.30 0.10 0.12 0.18 0.25 0.22 0.18 0.36 0.40 0.47 0.22 0.21 0.34 0.36 0.20 0.23 0.31 0.41 0.27 0.21 0.21 0.20 0.32 0.34 0.38 0.31 0.30 0.18 0.06 0.03 0.01 0.01 0.02 0.02 0.00 0.00 0.00 0.00 0.00 0.00 0.00 0.00
0.00 0.00 0.00 0.00 0.00 0.00 0.00 0.01 0.01 0.01 0.03 0.14 0.46 0.33 0.26 0.28 0.37 0.28 0.20 0.25 0.34 0.31 0.24 0.33 0.40 0.46 0.51 0.34 0.35 0.44 0.26 0.16 0.16 0.26 0.36 0.41 0.31 0.28 0.33 0.15 0.08 0.04 0.02 0.02 0.02 0.01 0.00 0.00 0.00 0.00 0.00 0.00 0.00 0.00
0.01 0.00 0.00 0.00 0.00 0.00 0.00 0.00 0.00 0.01 0.01 0.02 0.29 0.63 0.55 0.49 0.49 0.36 0.30 0.32 0.37 0.36 0.32 0.24 0.21 0.36 0.47 0.41 0.30 0.26 0.32 0.24 0.18 0.28 0.45 0.34 0.23 0.22 0.25 0.19 0.11 0.03 0.02 0.01 0.01 0.00 0.00 0.00 0.00 0.00 0.00 0.00 0.00 0.00
0.00 0.01 0.00 0.00 0.00 0.00 0.00 0.00 0.00 0.01 0.01 0.00 0.04 0.31 0.52 0.64 0.55 0.43 0.64 0.51 0.28 0.20 0.29 0.22 0.23 0.29 0.54 0.54 0.52 0.37 0.31 0.36 0.30 0.30 0.28 0.20 0.14 0.19 0.24 0.19 0.05 0.02 0.01 0.01 0.00 0.00 0.00 0.00 0.00 0.00 0.00 0.00 0.00 0.00
0.01 0.01 0.01 0.01 0.00 0.00 0.00 0.00 0.00 0.00 0.00 0.00 0.01 0.05 0.12 0.19 0.27 0.52 0.34 0.27 0.16 0.17 0.32 0.29 0.22 0.18 0.34 0.43 0.50 0.63 0.52 0.50 0.35 0.27 0.22 0.15 0.07 0.09 0.19 0.18 0.06 0.01 0.01 0.01 0.01 0.00 0.00 0.00 0.00 0.00 0.00 0.00 0.00 0.00
0.01 0.01 0.00 0.01 0.01 0.00 0.00 0.00 0.00 0.00 0.00 0.00 0.00 0.01 0.06 0.14 0.24 0.33 0.21 0.13 0.14 0.20 0.17 0.23 0.19 0.14 0.13 0.25 0.28 0.30 0.36 0.25 0.27 0.25 0.13 0.10 0.15 0.12 0.07 0.03 0.07 0.08 0.02 0.01 0.00 0.00 0.00 0.00 0.00 0.00 0.00 0.00 0.00 0.00
0.01 0.01 0.01 0.01 0.00 0.00 0.00 0.00 0.00 0.00 0.00 0.00 0.00 0.00 0.00 0.03 0.04 0.04 0.05 0.08 0.12 0.19 0.19 0.16 0.21 0.15 0.03 0.12 0.13 0.10 0.08 0.17 0.18 0.23 0.13 0.05 0.06 0.06 0.05 0.01 0.00 0.04 0.03 0.01 0.00 0.00 0.00 0.00 0.00 0.00 0.00 0.00 0.00 0.00
0.01 0.01 0.01 0.00 0.00 0.00 0.00 0.00 0.00 0.00 0.00 0.00 0.00 0.02 0.02 0.01 0.00 0.00 0.00 0.01 0.03 0.03 0.06 0.11 0.05 0.05 0.06 0.05 0.08 0.08 0.10 0.14 0.14 0.08 0.05 0.04 0.02 0.00 0.00 0.00 0.00 0.00 0.00 0.00 0.00 0.00 0.00 0.00 0.00 0.00 0.00 0.00 0.00 0.00
0.01 0.01 0.01 0.00 0.00 0.00 0.00 0.00 0.00 0.00 0.00 0.01 0.04 0.04 0.01 0.00 0.01 0.03 0.02 0.03 0.01 0.03 0.03 0.03 0.02 0.02 0.01 0.02 0.05 0.04 0.06 0.06 0.06 0.03 0.01 0.02 0.01 0.00 0.00 0.00 0.00 0.00 0.00 0.00 0.00 0.00 0.00 0.00 0.00 0.00 0.00 0.00 0.00 0.00
0.01 0.01 0.01 0.00 0.00 0.00 0.00 0.00 0.00 0.00 0.00 0.00 0.00 0.00 0.00 0.01 0.04 0.04 0.00 0.00 0.01 0.01 0.04 0.01 0.01 0.01 0.01 0.01 0.01 0.01 0.02 0.07 0.05 0.02 0.02 0.03 0.01 0.00 0.00 0.00 0.00 0.00 0.00 0.00 0.00 0.00 0.00 0.00 0.00 0.00 0.00 0.00 0.00 0.00
0.02 0.01 0.01 0.00 0.00 0.00 0.00 0.00 0.00 0.00 0.00 0.00 0.02 0.00 0.00 0.02 0.03 0.02 0.01 0.02 0.01 0.01 0.02 0.01 0.02 0.01 0.01 0.02 0.01 0.01 0.03 0.04 0.02 0.02 0.03 0.05 0.01 0.01 0.01 0.00 0.00 0.00 0.00 0.00 0.00 0.00 0.00 0.00 0.00 0.00 0.00 0.00 0.00 0.00
0.01 0.00 0.00 0.01 0.00 0.00 0.00 0.00 0.00 0.00 0.00 0.01 0.02 0.01 0.01 0.04 0.02 0.03 0.06 0.11 0.02 0.00 0.00 0.01 0.02 0.03 0.03 0.02 0.01 0.01 0.01 0.02 0.03 0.02 0.06 0.04 0.01 0.01 0.01 0.00 0.00 0.00 0.00 0.00 0.00 0.00 0.00 0.00 0.00 0.00 0.00 0.00 0.00 0.00
0.00 0.00 0.00 0.00 0.00 0.00 0.00 0.00 0.00 0.00 0.00 0.00 0.00 0.02 0.01 0.01 0.02 0.02 0.01 0.01 0.01 0.01 0.02 0.03 0.02 0.01 0.01 0.00 0.00 0.00 0.01 0.01 0.01 0.02 0.04 0.01 0.01 0.00 0.00 0.00 0.00 0.00 0.00 0.00 0.00 0.00 0.00 0.00 0.00 0.00 0.00 0.00 0.00 0.00
0.00 0.00 0.00 0.00 0.00 0.00 0.00 0.00 0.00 0.00 0.00 0.00 0.00 0.02 0.05 0.11 0.06 0.06 0.06 0.05 0.04 0.03 0.04 0.04 0.03 0.01 0.00 0.00 0.00 0.00 0.00 0.02 0.04 0.05 0.03 0.00 0.00 0.00 0.00 0.00 0.00 0.00 0.00 0.00 0.00 0.00 0.00 0.00 0.00 0.00 0.00 0.00 0.00 0.00
0.00 0.02 0.00 0.00 0.00 0.00 0.00 0.00 0.00 0.00 0.00 0.00 0.01 0.01 0.19 0.20 0.07 0.09 0.06 0.05 0.06 0.09 0.08 0.04 0.02 0.01 0.00 0.01 0.02 0.04 0.08 0.10 0.05 0.03 0.01 0.00 0.00 0.00 0.00 0.00 0.00 0.00 0.00 0.00 0.00 0.00 0.00 0.00 0.00 0.00 0.00 0.00 0.00 0.00
0.01 0.01 0.00 0.00 0.00 0.00 0.00 0.00 0.00 0.00 0.00 0.01 0.05 0.02 0.02 0.04 0.11 0.11 0.03 0.04 0.07 0.11 0.08 0.04 0.02 0.01 0.01 0.03 0.08 0.07 0.05 0.03 0.02 0.01 0.00 0.00 0.00 0.00 0.00 0.00 0.00 0.00 0.00 0.00 0.00 0.00 0.00 0.00 0.00 0.00 0.00 0.00 0.00 0.00
0.01 0.00 0.00 0.00 0.00 0.01 0.00 0.00 0.00 0.01 0.01 0.01 0.01 0.00 0.01 0.02 0.02 0.01 0.00 0.00 0.05 0.10 0.06 0.03 0.02 0.06 0.09 0.14 0.13 0.03 0.01 0.01 0.01 0.01 0.00 0.00 0.00 0.00 0.00 0.00 0.00 0.00 0.00 0.00 0.00 0.00 0.00 0.00 0.00 0.00 0.00 0.00 0.00 0.00
0.00 0.00 0.00 0.00 0.00 0.01 0.02 0.02 0.01 0.01 0.03 0.01 0.01 0.01 0.02 0.07 0.03 0.01 0.00 0.00 0.03 0.06 0.03 0.04 0.09 0.15 0.17 0.11 0.11 0.07 0.01 0.00 0.00 0.00 0.01 0.01 0.00 0.00 0.00 0.00 0.01 0.01 0.00 0.00 0.01 0.00 0.00 0.00 0.00 0.00 0.00 0.00 0.00 0.00
0.00 0.00 0.00 0.01 0.01 0.01 0.01 0.02 0.03 0.02 0.01 0.01 0.01 0.01 0.04 0.02 0.03 0.05 0.04 0.02 0.03 0.07 0.13 0.12 0.10 0.05 0.06 0.06 0.03 0.05 0.03 0.02 0.01 0.01 0.00 0.01 0.00 0.00 0.00 0.01 0.00 0.01 0.01 0.01 0.01 0.01 0.00 0.00 0.00 0.00 0.00 0.00 0.00 0.00
0.00 0.00 0.01 0.01 0.01 0.00 0.00 0.01 0.02 0.03 0.02 0.02 0.01 0.01 0.04 0.05 0.04 0.06 0.08 0.14 0.20 0.11 0.07 0.07 0.07 0.03 0.01 0.02 0.01 0.01 0.02 0.03 0.06 0.03 0.00 0.00 0.00 0.00 0.01 0.01 0.01 0.01 0.01 0.01 0.00 0.01 0.01 0.00 0.00 0.00 0.00 0.01 0.01 0.01
0.00 0.00 0.00 0.01 0.00 0.00 0.00 0.00 0.02 0.03 0.02 0.04 0.05 0.03 0.04 0.07 0.08 0.11 0.21 0.16 0.16 0.10 0.04 0.03 0.07 0.12 0.10 0.06 0.01 0.00 0.00 0.00 0.04 0.05 0.00 0.00 0.00 0.01 0.01 0.01 0.02 0.01 0.02 0.02 0.01 0.01 0.01 0.00 0.01 0.01 0.01 0.01 0.01 0.01
0.01 0.00 0.00 0.00 0.00 0.00 0.00 0.01 0.02 0.06 0.06 0.08 0.09 0.06 0.14 0.11 0.10 0.20 0.21 0.17 0.11 0.03 0.02 0.04 0.04 0.08 0.14 0.09 0.06 0.04 0.04 0.04 0.06 0.09 0.06 0.03 0.01 0.01 0.01 0.02 0.02 0.02 0.02 0.01 0.01 0.01 0.01 0.01 0.01 0.01 0.01 0.00 0.01 0.01
0.01 0.00 0.00 0.00 0.01 0.00 0.00 0.00 0.01 0.02 0.02 0.01 0.02 0.07 0.11 0.09 0.18 0.14 0.10 0.11 0.06 0.05 0.05 0.04 0.06 0.06 0.06 0.06 0.05 0.06 0.09 0.14 0.19 0.21 0.21 0.15 0.09 0.06 0.06 0.06 0.05 0.05 0.04 0.02 0.03 0.02 0.02 0.01 0.00 0.00 0.00 0.01 0.01 0.02
0.00 0.00 0.01 0.00 0.00 0.00 0.00 0.01 0.02 0.01 0.01 0.01 0.02 0.02 0.01 0.03 0.06 0.09 0.07 0.09 0.06 0.05 0.05 0.05 0.06 0.06 0.07 0.08 0.08 0.09 0.11 0.16 0.25 0.16 0.21 0.23 0.22 0.15 0.05 0.03 0.04 0.06 0.06 0.03 0.02 0.02 0.01 0.01 0.01 0.00 0.00 0.01 0.00 0.01
0.00 0.00 0.00 0.00 0.00 0.00 0.00 0.00 0.00 0.00 0.01 0.01 0.02 0.01 0.01 0.03 0.07 0.06 0.04 0.03 0.04 0.03 0.03 0.03 0.03 0.05 0.06 0.07 0.08 0.10 0.12 0.14 0.16 0.22 0.26 0.25 0.23 0.23 0.15 0.12 0.09 0.07 0.07 0.05 0.02 0.03 0.02 0.02 0.01 0.01 0.01 0.01 0.00 0.01
0.00 0.00 0.00 0.00 0.00 0.00 0.00 0.00 0.00 0.01 0.01 0.01 0.01 0.02 0.02 0.04 0.06 0.03 0.03 0.03 0.03 0.03 0.02 0.01 0.01 0.03 0.04 0.06 0.07 0.08 0.09 0.15 0.18 0.19 0.18 0.20 0.24 0.27 0.20 0.13 0.10 0.11 0.10 0.08 0.05 0.04 0.03 0.02 0.02 0.01 0.01 0.02 0.02 0.01
0.00 0.00 0.00 0.00 0.00 0.00 0.00 0.00 0.01 0.01 0.00 0.00 0.01 0.03 0.03 0.02 0.02 0.03 0.03 0.02 0.02 0.03 0.03 0.02 0.01 0.01 0.02 0.02 0.01 0.03 0.05 0.06 0.11 0.12 0.13 0.16 0.17 0.19 0.17 0.13 0.10 0.09 0.08 0.07 0.05 0.04 0.03 0.02 0.01 0.01 0.01 0.01 0.01 0.01
0.00 0.00 0.00 0.00 0.00 0.00 0.01 0.01 0.03 0.00 0.00 0.00 0.00 0.00 0.01 0.02 0.01 0.01 0.01 0.02 0.03 0.04 0.01 0.01 0.00 0.00 0.00 0.01 0.01 0.00 0.00 0.01 0.02 0.04 0.06 0.08 0.11 0.12 0.11 0.10 0.09 0.07 0.06 0.06 0.05 0.05 0.03 0.02 0.02 0.02 0.02 0.01 0.00 0.00
0.00 0.00 0.00 0.00 0.01 0.03 0.01 0.00 0.00 0.00 0.00 0.00 0.01 0.01 0.03 0.03 0.01 0.01 0.01 0.01 0.01 0.01 0.01 0.01 0.01 0.00 0.00 0.00 0.00 0.00 0.01 0.01 0.00 0.00 0.00 0.01 0.02 0.04 0.03 0.04 0.05 0.04 0.04 0.04 0.03 0.04 0.03 0.03 0.03 0.03 0.03 0.02 0.01 0.00
0.00 0.00 0.00 0.00 0.01 0.01 0.00 0.00 0.00 0.00 0.01 0.01 0.01 0.01 0.01 0.00 0.02 0.03 0.01 0.01 0.01 0.01 0.02 0.01 0.01 0.01 0.00 0.00 0.00 0.00 0.00 0.00 0.01 0.01 0.00 0.00 0.01 0.01 0.01 0.01 0.01 0.01 0.00 0.00 0.01 0.01 0.01 0.02 0.02 0.02 0.02 0.02 0.02 0.02
0.00 0.00 0.00 0.00 0.00 0.00 0.00 0.00 0.00 0.00 0.00 0.01 0.01 0.01 0.01 0.01 0.01 0.03 0.01 0.01 0.02 0.02 0.00 0.01 0.01 0.00 0.00 0.00 0.00 0.00 0.01 0.01 0.01 0.01 0.00 0.00 0.00 0.00 0.00 0.01 0.01 0.01 0.00 0.00 0.00 0.00 0.00 0.00 0.00 0.00 0.00 0.01 0.01 0.01

GFSWCAN_prec_precacc12_222.txt.gz
Total_Precipitation_Accumulation
0.01 0.01 0.01 0.00 0.00 0.01 0.01 0.02 0.11 0.18 0.12 0.14 0.13 0.09 0.22 0.28 0.34 0.30 0.26 0.19 0.24 0.22 0.21 0.17 0.26 0.22 0.39 0.47 0.46 0.38 0.30 0.45 0.69 0.93 1.00 0.83 0.64 0.42 0.31 0.19 0.22 0.48 0.49 0.38 0.49 0.38 0.11 0.00 0.00 0.00 0.00 0.00 0.00 0.00
0.01 0.02 0.01 0.00 0.00 0.00 0.01 0.01 0.02 0.09 0.17 0.11 0.08 0.12 0.09 0.13 0.19 0.31 0.40 0.48 0.43 0.39 0.29 0.10 0.14 0.25 0.15 0.37 0.34 0.26 0.28 0.25 0.34 0.54 0.65 0.60 0.61 0.47 0.32 0.24 0.12 0.16 0.34 0.31 0.14 0.07 0.01 0.00 0.00 0.00 0.00 0.00 0.00 0.00
0.02 0.02 0.01 0.01 0.00 0.00 0.01 0.01 0.01 0.02 0.05 0.18 0.11 0.04 0.10 0.10 0.15 0.21 0.16 0.35 0.26 0.23 0.11 0.07 0.15 0.20 0.16 0.22 0.29 0.35 0.19 0.16 0.17 0.20 0.35 0.35 0.36 0.36 0.42 0.28 0.08 0.08 0.13 0.27 0.24 0.07 0.00 0.00 0.00 0.00 0.00 0.00 0.00 0.00
0.01 0.02 0.01 0.01 0.01 0.00 0.00 0.01 0.01 0.01 0.02 0.04 0.19 0.06 0.10 0.10 0.17 0.23 0.14 0.09 0.15 0.14 0.13 0.09 0.17 0.23 0.28 0.19 0.23 0.36 0.20 0.12 0.13 0.24 0.34 0.45 0.33 0.26 0.32 0.21 0.14 0.07 0.06 0.14 0.18 0.07 0.01 0.00 0.00 0.00 0.00 0.00 0.00 0.00
0.02 0.01 0.01 0.01 0.01 0.00 0.01 0.01 0.01 0.01 0.01 0.02 0.23 0.34 0.16 0.20 0.32 0.21 0.14 0.13 0.18 0.28 0.24 0.11 0.11 0.26 0.34 0.30 0.21 0.19 0.28 0.22 0.17 0.28 0.48 0.37 0.27 0.27 0.31 0.26 0.16 0.07 0.09 0.06 0.04 0.01 0.00 0.00 0.00 0.00 0.00 0.00 0.00 0.00
0.01 0.01 0.01 0.01 0.01 0.01 0.01 0.00 0.00 0.01 0.01 0.01 0.04 0.31 0.41 0.45 0.42 0.28 0.39 0.33 0.21 0.17 0.25 0.16 0.12 0.25 0.50 0.51 0.51 0.36 0.31 0.37 0.30 0.30 0.30 0.21 0.18 0.21 0.29 0.26 0.11 0.04 0.03 0.02 0.01 0.00 0.00 0.00 0.00 0.00 0.00 0.00 0.00 0.00
0.01 0.01 0.01 0.01 0.01 0.01 0.00 0.00 0.00 0.00 0.01 0.00 0.02 0.06 0.15 0.22 0.25 0.47 0.24 0.15 0.12 0.15 0.29 0.22 0.12 0.16 0.34 0.42 0.50 0.65 0.55 0.54 0.37 0.30 0.25 0.17 0.10 0.16 0.24 0.19 0.09 0.06 0.05 0.03 0.03 0.05 0.03 0.01 0.00 0.00 0.00 0.00 0.00 0.00
0.01 0.01 0.01 0.01 0.01 0.00 0.00 0.00 0.00 0.00 0.00 0.00 0.00 0.01 0.06 0.15 0.26 0.34 0.22 0.15 0.17 0.25 0.20 0.20 0.12 0.11 0.13 0.25 0.30 0.36 0.53 0.47 0.42 0.32 0.19 0.15 0.16 0.16 0.15 0.05 0.08 0.14 0.12 0.11 0.09 0.05 0.06 0.05 0.03 0.02 0.01 0.01 0.00 0.00
0.01 0.01 0.01 0.01 0.01 0.00 0.00 0.00 0.00 0.00 0.00 0.00 0.00 0.00 0.00 0.04 0.04 0.05 0.06 0.14 0.18 0.28 0.25 0.17 0.20 0.14 0.03 0.13 0.17 0.18 0.24 0.35 0.35 0.38 0.26 0.15 0.13 0.09 0.06 0.01 0.00 0.05 0.13 0.19 0.14 0.13 0.10 0.07 0.06 0.03 0.01 0.00 0.00 0.00
0.01 0.01 0.01 0.01 0.01 0.01 0.00 0.00 0.00 0.00 0.00 0.00 0.00 0.02 0.02 0.01 0.00 0.00 0.00 0.02 0.04 0.06 0.08 0.13 0.05 0.05 0.07 0.06 0.13 0.14 0.19 0.27 0.25 0.16 0.15 0.12 0.05 0.01 0.00 0.00 0.00 0.00 0.00 0.06 0.16 0.18 0.08 0.01 0.00 0.00 0.00 0.00 0.00 0.00
0.02 0.02 0.01 0.01 0.01 0.01 0.00 0.00 0.00 0.00 0.00 0.01 0.04 0.05 0.01 0.00 0.01 0.03 0.03 0.03 0.01 0.04 0.03 0.03 0.02 0.02 0.01 0.03 0.08 0.06 0.09 0.10 0.11 0.07 0.08 0.10 0.05 0.01 0.00 0.00 0.00 0.00 0.00 0.00 0.01 0.03 0.01 0.00 0.00 0.00 0.00 0.00 0.00 0.00
0.02 0.02 0.01 0.01 0.01 0.01 0.00 0.00 0.00 0.00 0.00 0.00 0.00 0.00 0.00 0.02 0.05 0.05 0.01 0.00 0.01 0.01 0.03 0.01 0.01 0.01 0.01 0.01 0.01 0.02 0.04 0.11 0.06 0.03 0.07 0.08 0.02 0.01 0.00 0.00 0.00 0.00 0.00 0.00 0.00 0.00 0.00 0.00 0.00 0.00 0.00 0.00 0.00 0.00
0.02 0.01 0.01 0.01 0.01 0.00 0.00 0.00 0.00 0.00 0.00 0.00 0.02 0.01 0.01 0.02 0.03 0.03 0.04 0.03 0.02 0.01 0.02 0.01 0.02 0.01 0.01 0.02 0.01 0.02 0.04 0.04 0.01 0.04 0.07 0.06 0.01 0.01 0.00 0.00 0.00 0.00 0.00 0.00 0.00 0.00 0.00 0.00 0.00 0.00 0.00 0.00 0.00 0.00
0.01 0.00 0.01 0.01 0.00 0.00 0.00 0.00 0.00 0.00 0.00 0.02 0.03 0.01 0.01 0.04 0.02 0.03 0.07 0.12 0.03 0.00 0.00 0.01 0.03 0.03 0.03 0.02 0.01 0.01 0.00 0.01 0.03 0.04 0.12 0.04 0.01 0.01 0.01 0.00 0.00 0.00 0.00 0.00 0.00 0.00 0.00 0.00 0.00 0.00 0.00 0.00 0.00 0.00
0.00 0.00 0.01 0.01 0.00 0.00 0.00 0.00 0.00 0.00 0.00 0.00 0.00 0.02 0.01 0.01 0.01 0.01 0.01 0.01 0.01 0.01 0.02 0.03 0.02 0.01 0.01 0.00 0.00 0.00 0.00 0.01 0.01 0.04 0.05 0.01 0.00 0.00 0.01 0.01 0.00 0.00 0.00 0.00 0.00 0.00 0.00 0.00 0.00 0.00 0.00 0.00 0.00 0.00
0.00 0.00 0.01 0.00 0.00 0.00 0.00 0.00 0.00 0.00 0.00 0.00 0.00 0.01 0.05 0.16 0.07 0.06 0.06 0.05 0.05 0.05 0.05 0.04 0.03 0.01 0.00 0.00 0.00 0.00 0.01 0.02 0.04 0.06 0.03 0.00 0.00 0.00 0.00 0.00 0.00 0.00 0.00 0.00 0.01 0.00 0.00 0.00 0.00 0.00 0.00 0.00 0.00 0.00
0.00 0.02 0.00 0.00 0.00 0.00 0.00 0.00 0.00 0.00 0.00 0.00 0.01 0.01 0.21 0.29 0.08 0.10 0.07 0.06 0.07 0.10 0.08 0.05 0.03 0.01 0.00 0.01 0.02 0.05 0.09 0.11 0.05 0.03 0.01 0.00 0.00 0.01 0.01 0.01 0.01 0.00 0.00 0.01 0.01 0.01 0.01 0.00 0.00 0.00 0.00 0.00 0.00 0.00
0.01 0.01 0.00 0.00 0.00 0.00 0.00 0.00 0.00 0.00 0.00 0.01 0.06 0.02 0.02 0.04 0.16 0.12 0.03 0.04 0.08 0.13 0.09 0.06 0.05 0.03 0.02 0.06 0.11 0.11 0.06 0.04 0.02 0.01 0.01 0.00 0.00 0.00 0.01 0.01 0.01 0.01 0.01 0.02 0.01 0.00 0.00 0.00 0.00 0.00 0.00 0.00 0.00 0.00
0.01 0.00 0.00 0.00 0.00 0.01 0.00 0.00 0.00 0.01 0.01 0.01 0.01 0.00 0.01 0.03 0.02 0.01 0.00 0.00 0.05 0.11 0.11 0.05 0.03 0.07 0.14 0.23 0.18 0.05 0.02 0.01 0.02 0.04 0.03 0.01 0.00 0.00 0.00 0.00 0.00 0.00 0.00 0.00 0.01 0.00 0.00 0.00 0.00 0.00 0.00 0.00 0.00 0.00
0.00 0.00 0.00 0.00 0.00 0.01 0.02 0.01 0.01 0.01 0.03 0.01 0.01 0.01 0.02 0.07 0.03 0.01 0.00 0.00 0.03 0.06 0.06 0.06 0.11 0.18 0.23 0.19 0.21 0.08 0.01 0.00 0.00 0.02 0.04 0.02 0.00 0.00 0.00 0.00 0.00 0.00 0.00 0.00 0.01 0.00 0.00 0.00 0.00 0.00 0.00 0.00 0.00 0.00
0.00 0.00 0.00 0.00 0.00 0.01 0.01 0.01 0.02 0.02 0.01 0.01 0.01 0.01 0.04 0.02 0.04 0.05 0.05 0.01 0.03 0.06 0.15 0.16 0.15 0.10 0.12 0.16 0.11 0.07 0.04 0.02 0.01 0.01 0.01 0.01 0.01 0.00 0.00 0.00 0.00 0.00 0.01 0.01 0.01 0.01 0.00 0.00 0.00 0.00 0.00 0.00 0.00 0.00
0.00 0.00 0.01 0.00 0.00 0.00 0.00 0.00 0.01 0.01 0.02 0.01 0.01 0.01 0.04 0.05 0.04 0.09 0.10 0.14 0.20 0.12 0.09 0.12 0.13 0.10 0.11 0.15 0.09 0.05 0.06 0.05 0.07 0.03 0.00 0.00 0.00 0.00 0.01 0.01 0.01 0.01 0.01 0.01 0.00 0.01 0.01 0.00 0.00 0.00 0.00 0.00 0.01 0.00
0.00 0.00 0.00 0.00 0.00 0.00 0.00 0.00 0.01 0.02 0.02 0.03 0.05 0.03 0.03 0.06 0.08 0.12 0.19 0.13 0.14 0.11 0.06 0.07 0.15 0.20 0.17 0.14 0.08 0.05 0.06 0.05 0.10 0.10 0.02 0.00 0.00 0.00 0.01 0.01 0.01 0.01 0.01 0.01 0.00 0.01 0.01 0.00 0.01 0.01 0.01 0.01 0.00 0.01
0.00 0.00 0.00 0.00 0.00 0.00 0.00 0.00 0.01 0.03 0.04 0.06 0.07 0.05 0.11 0.08 0.08 0.16 0.15 0.14 0.11 0.04 0.04 0.08 0.07 0.12 0.20 0.15 0.11 0.07 0.06 0.06 0.11 0.14 0.10 0.06 0.02 0.01 0.01 0.01 0.02 0.02 0.01 0.01 0.01 0.02 0.01 0.01 0.01 0.01 0.01 0.00 0.01 0.01
0.01 0.00 0.00 0.00 0.00 0.00 0.00 0.00 0.00 0.01 0.01 0.01 0.02 0.05 0.04 0.02 0.08 0.07 0.07 0.09 0.04 0.03 0.03 0.03 0.07 0.05 0.06 0.07 0.08 0.08 0.09 0.12 0.18 0.22 0.22 0.17 0.12 0.08 0.07 0.07 0.06 0.05 0.04 0.02 0.03 0.02 0.02 0.01 0.01 0.00 0.00 0.00 0.01 0.02
0.00 0.00 0.00 0.00 0.00 0.00 0.00 0.01 0.01 0.01 0.01 0.00 0.02 0.01 0.01 0.02 0.05 0.07 0.05 0.08 0.05 0.04 0.03 0.03 0.03 0.03 0.03 0.03 0.04 0.06 0.08 0.13 0.22 0.15 0.19 0.23 0.24 0.18 0.08 0.04 0.05 0.08 0.08 0.03 0.01 0.02 0.02 0.01 0.01 0.01 0.01 0.01 0.01 0.02
0.00 0.00 0.00 0.00 0.00 0.00 0.00 0.00 0.00 0.00 0.00 0.01 0.01 0.01 0.01 0.03 0.06 0.05 0.03 0.02 0.03 0.02 0.02 0.01 0.02 0.02 0.02 0.02 0.03 0.05 0.07 0.08 0.11 0.19 0.27 0.28 0.28 0.32 0.21 0.16 0.12 0.09 0.09 0.05 0.03 0.03 0.02 0.02 0.01 0.01 0.01 0.01 0.01 0.01
0.00 0.00 0.00 0.00 0.00 0.00 0.00 0.00 0.00 0.00 0.01 0.00 0.01 0.01 0.02 0.03 0.06 0.03 0.02 0.02 0.02 0.01 0.01 0.00 0.01 0.01 0.01 0.02 0.02 0.03 0.04 0.09 0.12 0.14 0.14 0.17 0.25 0.33 0.27 0.19 0.17 0.18 0.16 0.13 0.09 0.07 0.04 0.03 0.03 0.02 0.01 0.02 0.02 0.01
0.00 0.00 0.00 0.00 0.00 0.00 0.00 0.00 0.01 0.01 0.00 0.00 0.01 0.03 0.03 0.02 0.01 0.02 0.01 0.01 0.01 0.02 0.02 0.01 0.01 0.01 0.02 0.01 0.01 0.01 0.02 0.03 0.06 0.08 0.09 0.13 0.15 0.21 0.23 0.21 0.17 0.15 0.15 0.13 0.11 0.09 0.07 0.04 0.02 0.01 0.01 0.01 0.01 0.01
0.00 0.00 0.00 0.00 0.00 0.01 0.01 0.01 0.03 0.00 0.00 0.00 0.00 0.00 0.01 0.02 0.01 0.00 0.01 0.01 0.03 0.03 0.01 0.01 0.00 0.00 0.00 0.01 0.01 0.00 0.00 0.00 0.01 0.03 0.04 0.07 0.11 0.13 0.13 0.14 0.13 0.12 0.10 0.09 0.09 0.08 0.07 0.06 0.06 0.05 0.03 0.02 0.02 0.01
0.00 0.00 0.00 0.00 0.01 0.03 0.01 0.00 0.00 0.00 0.00 0.00 0.00 0.01 0.03 0.02 0.01 0.01 0.01 0.01 0.01 0.01 0.01 0.01 0.01 0.00 0.00 0.00 0.00 0.00 0.02 0.01 0.00 0.00 0.00 0.01 0.02 0.04 0.03 0.05 0.06 0.05 0.05 0.05 0.05 0.06 0.06 0.06 0.06 0.06 0.05 0.05 0.03 0.02
0.00 0.00 0.00 0.00 0.01 0.01 0.00 0.00 0.00 0.00 0.00 0.01 0.01 0.00 0.00 0.01 0.02 0.03 0.00 0.01 0.01 0.01 0.02 0.02 0.02 0.01 0.00 0.00 0.00 0.00 0.00 0.00 0.01 0.00 0.00 0.00 0.01 0.01 0.00 0.00 0.01 0.01 0.01 0.00 0.01 0.01 0.02 0.03 0.04 0.04 0.04 0.04 0.04 0.04
0.00 0.00 0.00 0.00 0.00 0.00 0.00 0.00 0.00 0.00 0.00 0.01 0.03 0.01 0.01 0.01 0.02 0.04 0.01 0.01 0.02 0.02 0.01 0.01 0.01 0.00 0.00 0.00 0.00 0.00 0.01 0.01 0.00 0.00 0.00 0.00 0.00 0.00 0.00 0.01 0.01 0.01 0.00 0.00 0.00 0.00 0.00 0.00 0.01 0.01 0.01 0.02 0.02 0.02

GFSWCAN_prec_precacc12_225.txt.gz
Total_Precipitation_Accumulation
0.03 0.02 0.02 0.02 0.02 0.02 0.01 0.01 0.01 0.01 0.04 0.08 0.07 0.08 0.19 0.24 0.31 0.31 0.23 0.14 0.23 0.30 0.22 0.11 0.09 0.14 0.14 0.24 0.32 0.18 0.12 0.31 0.62 0.89 0.94 0.74 0.58 0.40 0.31 0.20 0.23 0.48 0.61 0.69 0.91 0.92 0.50 0.04 0.00 0.00 0.00 0.00 0.00 0.00
0.02 0.02 0.02 0.01 0.01 0.01 0.02 0.02 0.01 0.01 0.02 0.06 0.05 0.07 0.07 0.11 0.14 0.26 0.34 0.36 0.33 0.40 0.38 0.10 0.02 0.01 0.04 0.08 0.19 0.20 0.22 0.21 0.33 0.49 0.59 0.57 0.60 0.48 0.34 0.25 0.12 0.19 0.41 0.42 0.37 0.37 0.21 0.07 0.05 0.01 0.00 0.00 0.00 0.00
0.02 0.02 0.02 0.02 0.01 0.01 0.02 0.01 0.02 0.02 0.02 0.04 0.04 0.04 0.08 0.08 0.08 0.16 0.08 0.30 0.21 0.18 0.13 0.16 0.09 0.02 0.00 0.03 0.07 0.28 0.16 0.13 0.16 0.20 0.35 0.36 0.36 0.36 0.42 0.29 0.09 0.08 0.14 0.32 0.35 0.18 0.09 0.07 0.04 0.05 0.00 0.00 0.00 0.00
0.02 0.02 0.01 0.01 0.01 0.01 0.01 0.02 0.01 0.01 0.02 0.03 0.08 0.04 0.08 0.06 0.09 0.11 0.06 0.06 0.13 0.10 0.08 0.07 0.04 0.03 0.02 0.05 0.10 0.11 0.16 0.11 0.12 0.24 0.35 0.47 0.39 0.28 0.32 0.20 0.14 0.06 0.11 0.19 0.22 0.15 0.11 0.09 0.02 0.00 0.00 0.00 0.00 0.00
0.03 0.02 0.01 0.01 0.01 0.01 0.01 0.01 0.01 0.01 0.02 0.02 0.13 0.14 0.12 0.11 0.15 0.08 0.02 0.02 0.12 0.20 0.18 0.06 0.03 0.04 0.07 0.11 0.16 0.10 0.16 0.17 0.14 0.26 0.45 0.35 0.27 0.27 0.31 0.27 0.17 0.07 0.09 0.09 0.06 0.02 0.02 0.05 0.06 0.03 0.00 0.00 0.00 0.00
0.02 0.02 0.02 0.02 0.01 0.01 0.01 0.01 0.01 0.01 0.01 0.01 0.03 0.22 0.31 0.38 0.17 0.14 0.20 0.12 0.09 0.10 0.20 0.10 0.02 0.07 0.22 0.23 0.32 0.27 0.24 0.31 0.28 0.28 0.28 0.21 0.18 0.21 0.29 0.27 0.11 0.04 0.03 0.03 0.02 0.00 0.00 0.00 0.00 0.02 0.01 0.00 0.00 0.00
0.02 0.02 0.02 0.02 0.01 0.01 0.00 0.00 0.00 0.00 0.01 0.00 0.02 0.05 0.15 0.28 0.17 0.27 0.14 0.05 0.07 0.12 0.24 0.15 0.04 0.04 0.18 0.26 0.35 0.57 0.53 0.54 0.38 0.32 0.27 0.17 0.10 0.17 0.25 0.19 0.09 0.06 0.05 0.03 0.03 0.05 0.03 0.01 0.00 0.00 0.00 0.00 0.00 0.00
0.02 0.02 0.02 0.02 0.02 0.01 0.00 0.00 0.00 0.00 0.00 0.00 0.00 0.01 0.06 0.15 0.26 0.31 0.19 0.13 0.18 0.26 0.19 0.16 0.06 0.04 0.07 0.18 0.26 0.33 0.54 0.53 0.51 0.40 0.23 0.16 0.19 0.18 0.17 0.05 0.08 0.15 0.13 0.11 0.09 0.05 0.06 0.05 0.03 0.02 0.01 0.01 0.01 0.01
0.02 0.02 0.01 0.01 0.02 0.01 0.00 0.00 0.00 0.00 0.00 0.00 0.00 0.00 0.00 0.03 0.03 0.04 0.05 0.13 0.20 0.37 0.29 0.16 0.14 0.08 0.02 0.12 0.16 0.19 0.26 0.43 0.44 0.47 0.32 0.22 0.19 0.15 0.07 0.01 0.00 0.05 0.13 0.20 0.15 0.13 0.12 0.11 0.09 0.07 0.05 0.04 0.05 0.04
0.02 0.02 0.02 0.02 0.01 0.01 0.01 0.00 0.00 0.00 0.00 0.00 0.00 0.02 0.02 0.01 0.00 0.00 0.00 0.01 0.05 0.12 0.10 0.10 0.02 0.03 0.06 0.07 0.15 0.16 0.22 0.31 0.31 0.19 0.20 0.20 0.09 0.01 0.00 0.00 0.00 0.00 0.00 0.06 0.17 0.22 0.22 0.14 0.14 0.08 0.05 0.04 0.03 0.03
0.02 0.02 0.02 0.01 0.01 0.01 0.00 0.00 0.00 0.00 0.00 0.01 0.04 0.05 0.01 0.00 0.01 0.03 0.03 0.03 0.01 0.03 0.02 0.01 0.01 0.01 0.01 0.04 0.11 0.09 0.11 0.13 0.15 0.09 0.12 0.13 0.05 0.01 0.00 0.00 0.00 0.01 0.00 0.00 0.01 0.03 0.05 0.06 0.04 0.06 0.03 0.01 0.00 0.00
0.02 0.01 0.01 0.01 0.01 0.01 0.00 0.00 0.00 0.00 0.00 0.00 0.01 0.01 0.00 0.02 0.05 0.05 0.01 0.00 0.01 0.01 0.03 0.01 0.00 0.00 0.00 0.02 0.03 0.03 0.07 0.14 0.08 0.03 0.09 0.09 0.02 0.01 0.00 0.00 0.01 0.02 0.02 0.01 0.01 0.00 0.01 0.01 0.01 0.01 0.02 0.02 0.00 0.00
0.02 0.01 0.01 0.01 0.01 0.00 0.00 0.00 0.00 0.00 0.00 0.00 0.03 0.01 0.01 0.02 0.04 0.03 0.07 0.05 0.02 0.00 0.01 0.01 0.02 0.01 0.01 0.03 0.02 0.02 0.06 0.04 0.01 0.05 0.07 0.05 0.01 0.03 0.05 0.07 0.01 0.00 0.01 0.02 0.03 0.01 0.00 0.00 0.00 0.00 0.01 0.01 0.01 0.01
0.01 0.01 0.01 0.01 0.01 0.00 0.00 0.00 0.00 0.00 0.00 0.02 0.03 0.01 0.01 0.04 0.02 0.02 0.05 0.12 0.03 0.00 0.00 0.01 0.02 0.03 0.03 0.04 0.01 0.01 0.00 0.01 0.04 0.05 0.12 0.03 0.05 0.03 0.06 0.14 0.08 0.02 0.02 0.02 0.02 0.02 0.01 0.01 0.01 0.01 0.00 0.00 0.00 0.00
0.01 0.00 0.00 0.01 0.01 0.00 0.00 0.00 0.00 0.00 0.00 0.00 0.00 0.02 0.00 0.00 0.00 0.00 0.01 0.00 0.00 0.01 0.01 0.02 0.03 0.01 0.01 0.00 0.00 0.00 0.00 0.01 0.03 0.07 0.05 0.01 0.02 0.02 0.05 0.12 0.10 0.12 0.11 0.08 0.06 0.04 0.03 0.02 0.01 0.01 0.01 0.00 0.00 0.00
0.00 0.00 0.01 0.01 0.00 0.00 0.00 0.00 0.00 0.00 0.00 0.00 0.00 0.01 0.04 0.18 0.06 0.03 0.05 0.05 0.05 0.05 0.04 0.04 0.03 0.01 0.00 0.00 0.00 0.01 0.02 0.03 0.05 0.06 0.02 0.01 0.00 0.02 0.02 0.04 0.04 0.06 0.09 0.09 0.09 0.05 0.03 0.02 0.02 0.01 0.00 0.00 0.00 0.00
0.00 0.02 0.00 0.00 0.00 0.00 0.00 0.00 0.00 0.00 0.00 0.00 0.00 0.01 0.19 0.30 0.09 0.09 0.07 0.05 0.07 0.10 0.08 0.06 0.03 0.01 0.00 0.01 0.03 0.06 0.10 0.10 0.05 0.03 0.00 0.00 0.00 0.03 0.01 0.01 0.01 0.01 0.00 0.01 0.03 0.06 0.03 0.01 0.00 0.00 0.00 0.00 0.00 0.00
0.01 0.00 0.00 0.00 0.00 0.00 0.00 0.00 0.00 0.00 0.00 0.01 0.05 0.01 0.02 0.04 0.20 0.17 0.03 0.03 0.08 0.14 0.09 0.08 0.06 0.04 0.03 0.07 0.15 0.14 0.07 0.04 0.03 0.04 0.02 0.01 0.00 0.02 0.01 0.03 0.02 0.02 0.01 0.03 0.02 0.01 0.01 0.01 0.00 0.00 0.00 0.00 0.00 0.00
0.00 0.00 0.00 0.00 0.01 0.01 0.00 0.00 0.00 0.01 0.01 0.00 0.00 0.00 0.01 0.03 0.01 0.01 0.00 0.00 0.04 0.10 0.18 0.12 0.04 0.08 0.15 0.26 0.19 0.08 0.04 0.02 0.03 0.07 0.07 0.05 0.02 0.01 0.01 0.11 0.08 0.07 0.05 0.11 0.05 0.05 0.01 0.02 0.00 0.00 0.00 0.00 0.00 0.00
0.00 0.00 0.00 0.00 0.00 0.00 0.01 0.01 0.00 0.01 0.03 0.01 0.01 0.00 0.02 0.06 0.02 0.00 0.00 0.00 0.02 0.04 0.07 0.10 0.11 0.18 0.24 0.21 0.24 0.11 0.04 0.00 0.01 0.04 0.07 0.09 0.05 0.01 0.01 0.03 0.03 0.03 0.03 0.04 0.03 0.05 0.02 0.00 0.00 0.00 0.00 0.00 0.00 0.00
0.00 0.00 0.00 0.00 0.00 0.00 0.00 0.00 0.02 0.01 0.01 0.01 0.01 0.01 0.03 0.01 0.04 0.03 0.03 0.01 0.02 0.05 0.14 0.15 0.16 0.12 0.16 0.21 0.16 0.09 0.05 0.03 0.01 0.01 0.01 0.02 0.02 0.00 0.01 0.01 0.00 0.00 0.01 0.00 0.01 0.01 0.01 0.00 0.00 0.00 0.00 0.00 0.00 0.00
0.00 0.00 0.00 0.00 0.00 0.00 0.00 0.00 0.00 0.01 0.01 0.01 0.01 0.01 0.03 0.04 0.04 0.08 0.08 0.10 0.15 0.09 0.09 0.13 0.16 0.15 0.15 0.18 0.13 0.09 0.09 0.07 0.07 0.03 0.00 0.00 0.01 0.01 0.01 0.01 0.00 0.01 0.00 0.00 0.00 0.01 0.01 0.00 0.00 0.00 0.00 0.00 0.01 0.00
0.00 0.00 0.00 0.00 0.00 0.00 0.00 0.00 0.01 0.01 0.01 0.02 0.03 0.02 0.02 0.05 0.05 0.09 0.15 0.11 0.12 0.11 0.08 0.08 0.16 0.26 0.24 0.23 0.17 0.10 0.10 0.08 0.11 0.12 0.03 0.00 0.00 0.00 0.00 0.00 0.00 0.00 0.01 0.01 0.00 0.00 0.00 0.00 0.01 0.01 0.01 0.01 0.00 0.01
0.00 0.00 0.00 0.00 0.00 0.00 0.00 0.00 0.00 0.01 0.01 0.03 0.04 0.04 0.06 0.04 0.04 0.08 0.10 0.09 0.08 0.03 0.04 0.08 0.07 0.12 0.21 0.20 0.21 0.20 0.16 0.13 0.14 0.17 0.13 0.08 0.02 0.01 0.00 0.00 0.01 0.01 0.00 0.00 0.01 0.01 0.01 0.01 0.01 0.01 0.01 0.01 0.01 0.01
0.01 0.00 0.00 0.00 0.00 0.00 0.00 0.00 0.00 0.00 0.00 0.00 0.01 0.03 0.03 0.01 0.05 0.02 0.04 0.06 0.02 0.02 0.02 0.03 0.06 0.05 0.05 0.08 0.13 0.16 0.19 0.20 0.23 0.29 0.24 0.18 0.13 0.10 0.08 0.07 0.05 0.04 0.03 0.01 0.03 0.02 0.03 0.02 0.00 0.00 0.00 0.00 0.01 0.02
0.00 0.00 0.00 0.00 0.00 0.00 0.00 0.00 0.00 0.00 0.00 0.00 0.01 0.01 0.00 0.01 0.05 0.06 0.03 0.04 0.02 0.02 0.02 0.02 0.02 0.02 0.02 0.02 0.03 0.05 0.08 0.13 0.21 0.19 0.22 0.22 0.23 0.18 0.10 0.06 0.06 0.09 0.09 0.02 0.00 0.01 0.02 0.02 0.01 0.00 0.01 0.01 0.02 0.02
0.00 0.00 0.00 0.00 0.00 0.00 0.00 0.00 0.00 0.00 0.00 0.00 0.01 0.00 0.01 0.02 0.05 0.04 0.02 0.01 0.01 0.01 0.01 0.01 0.01 0.01 0.02 0.02 0.02 0.03 0.03 0.04 0.07 0.16 0.24 0.25 0.27 0.32 0.25 0.19 0.16 0.11 0.09 0.05 0.02 0.02 0.01 0.01 0.01 0.01 0.01 0.01 0.01 0.01
0.01 0.00 0.00 0.00 0.00 0.00 0.00 0.00 0.00 0.00 0.00 0.00 0.00 0.01 0.01 0.02 0.04 0.02 0.01 0.01 0.01 0.01 0.00 0.00 0.00 0.01 0.01 0.01 0.01 0.01 0.02 0.05 0.07 0.09 0.10 0.14 0.23 0.33 0.30 0.23 0.21 0.22 0.20 0.17 0.12 0.09 0.05 0.03 0.02 0.01 0.01 0.02 0.03 0.01
0.00 0.00 0.00 0.00 0.00 0.00 0.00 0.00 0.00 0.00 0.00 0.00 0.01 0.02 0.03 0.01 0.01 0.01 0.01 0.00 0.00 0.01 0.01 0.01 0.01 0.01 0.02 0.01 0.00 0.00 0.00 0.01 0.03 0.04 0.05 0.09 0.12 0.18 0.24 0.23 0.19 0.18 0.22 0.23 0.20 0.16 0.12 0.06 0.02 0.01 0.01 0.01 0.01 0.01
0.00 0.00 0.00 0.00 0.00 0.01 0.01 0.01 0.02 0.00 0.00 0.00 0.00 0.00 0.01 0.02 0.01 0.00 0.00 0.01 0.03 0.03 0.01 0.01 0.00 0.00 0.00 0.01 0.01 0.00 0.00 0.00 0.00 0.01 0.02 0.05 0.10 0.12 0.12 0.15 0.16 0.16 0.15 0.16 0.17 0.16 0.14 0.12 0.10 0.08 0.05 0.03 0.02 0.01
0.00 0.00 0.00 0.00 0.01 0.03 0.01 0.00 0.00 0.00 0.00 0.00 0.00 0.00 0.03 0.02 0.00 0.00 0.00 0.01 0.00 0.01 0.01 0.01 0.01 0.00 0.00 0.00 0.00 0.00 0.02 0.01 0.00 0.00 0.00 0.01 0.02 0.03 0.02 0.04 0.07 0.07 0.09 0.09 0.09 0.10 0.10 0.09 0.09 0.09 0.09 0.08 0.05 0.03
0.00 0.00 0.00 0.00 0.01 0.01 0.00 0.00 0.00 0.00 0.00 0.00 0.01 0.00 0.00 0.00 0.02 0.02 0.00 0.00 0.01 0.01 0.02 0.02 0.02 0.01 0.00 0.00 0.00 0.00 0.00 0.00 0.00 0.00 0.00 0.00 0.00 0.00 0.00 0.00 0.00 0.00 0.01 0.02 0.03 0.03 0.04 0.05 0.06 0.06 0.06 0.06 0.06 0.06
0.00 0.00 0.00 0.00 0.00 0.00 0.00 0.00 0.00 0.00 0.00 0.01 0.03 0.01 0.00 0.00 0.02 0.04 0.01 0.01 0.02 0.02 0.00 0.00 0.00 0.00 0.00 0.00 0.00 0.00 0.00 0.01 0.00 0.00 0.00 0.00 0.00 0.00 0.00 0.00 0.01 0.01 0.00 0.00 0.00 0.00 0.01 0.01 0.02 0.02 0.03 0.03 0.03 0.03

GFSWCAN_prec_precacc12_228.txt.gz
Total_Precipitation_Accumulation
0.03 0.03 0.03 0.02 0.02 0.02 0.02 0.02 0.02 0.01 0.02 0.03 0.04 0.06 0.18 0.22 0.31 0.34 0.26 0.14 0.31 0.42 0.20 0.06 0.03 0.09 0.07 0.12 0.24 0.16 0.17 0.35 0.37 0.49 0.53 0.36 0.38 0.35 0.31 0.19 0.23 0.47 0.58 0.66 0.88 0.94 0.55 0.05 0.00 0.01 0.02 0.00 0.00 0.00
0.03 0.03 0.03 0.02 0.02 0.01 0.02 0.02 0.01 0.02 0.04 0.02 0.02 0.03 0.05 0.11 0.19 0.38 0.39 0.26 0.29 0.49 0.39 0.10 0.03 0.01 0.03 0.03 0.06 0.10 0.15 0.17 0.15 0.19 0.27 0.25 0.34 0.41 0.33 0.25 0.12 0.19 0.41 0.42 0.37 0.39 0.23 0.09 0.07 0.01 0.00 0.00 0.00 0.00
0.04 0.03 0.03 0.02 0.01 0.01 0.02 0.01 0.02 0.02 0.02 0.01 0.02 0.04 0.06 0.06 0.10 0.28 0.20 0.29 0.13 0.17 0.13 0.18 0.13 0.03 0.01 0.02 0.02 0.08 0.03 0.06 0.11 0.10 0.19 0.25 0.27 0.32 0.40 0.29 0.09 0.08 0.14 0.32 0.35 0.18 0.09 0.08 0.08 0.10 0.07 0.02 0.00 0.00
0.03 0.03 0.02 0.02 0.02 0.02 0.02 0.02 0.02 0.01 0.02 0.01 0.02 0.04 0.06 0.07 0.11 0.13 0.09 0.04 0.03 0.04 0.05 0.06 0.07 0.06 0.02 0.01 0.00 0.00 0.00 0.00 0.05 0.20 0.22 0.33 0.34 0.26 0.30 0.20 0.14 0.06 0.11 0.21 0.26 0.16 0.11 0.09 0.03 0.01 0.03 0.07 0.05 0.02
0.03 0.03 0.02 0.02 0.02 0.02 0.02 0.02 0.01 0.01 0.02 0.02 0.02 0.05 0.10 0.12 0.14 0.06 0.03 0.01 0.01 0.07 0.11 0.03 0.01 0.03 0.02 0.01 0.01 0.00 0.01 0.01 0.05 0.21 0.40 0.22 0.17 0.24 0.30 0.27 0.17 0.07 0.09 0.09 0.08 0.03 0.02 0.05 0.06 0.04 0.03 0.04 0.08 0.06
0.03 0.02 0.03 0.03 0.02 0.02 0.01 0.01 0.01 0.01 0.02 0.01 0.02 0.11 0.22 0.26 0.12 0.05 0.02 0.00 0.00 0.03 0.13 0.05 0.00 0.00 0.01 0.03 0.04 0.03 0.04 0.10 0.08 0.14 0.17 0.14 0.13 0.17 0.26 0.25 0.11 0.04 0.03 0.03 0.02 0.00 0.00 0.00 0.00 0.02 0.05 0.03 0.05 0.08
0.02 0.03 0.03 0.03 0.02 0.02 0.01 0.01 0.01 0.00 0.01 0.00 0.01 0.04 0.11 0.26 0.19 0.12 0.04 0.01 0.02 0.02 0.11 0.06 0.01 0.00 0.03 0.09 0.18 0.27 0.25 0.32 0.17 0.17 0.17 0.09 0.07 0.16 0.22 0.18 0.08 0.06 0.05 0.03 0.03 0.05 0.03 0.01 0.00 0.00 0.00 0.02 0.06 0.08
0.03 0.03 0.03 0.03 0.02 0.01 0.01 0.01 0.00 0.00 0.00 0.00 0.00 0.00 0.04 0.11 0.20 0.21 0.09 0.09 0.15 0.22 0.16 0.12 0.05 0.01 0.02 0.09 0.16 0.23 0.41 0.50 0.48 0.34 0.20 0.12 0.14 0.17 0.18 0.05 0.08 0.15 0.13 0.11 0.09 0.05 0.06 0.05 0.03 0.02 0.01 0.01 0.02 0.03
0.02 0.02 0.03 0.02 0.02 0.02 0.01 0.01 0.00 0.00 0.00 0.00 0.00 0.00 0.00 0.02 0.02 0.02 0.04 0.13 0.21 0.41 0.33 0.14 0.08 0.05 0.01 0.08 0.11 0.18 0.28 0.43 0.41 0.45 0.30 0.23 0.20 0.16 0.05 0.01 0.00 0.05 0.13 0.20 0.15 0.14 0.13 0.11 0.10 0.07 0.05 0.04 0.05 0.04
0.02 0.02 0.03 0.02 0.02 0.01 0.01 0.00 0.00 0.00 0.00 0.00 0.00 0.02 0.01 0.01 0.00 0.00 0.00 0.01 0.09 0.22 0.16 0.10 0.03 0.04 0.05 0.07 0.15 0.14 0.23 0.29 0.30 0.19 0.22 0.23 0.09 0.01 0.00 0.00 0.00 0.00 0.01 0.07 0.17 0.23 0.22 0.14 0.14 0.09 0.06 0.05 0.04 0.05
0.02 0.02 0.03 0.01 0.01 0.01 0.00 0.00 0.01 0.00 0.00 0.01 0.03 0.04 0.01 0.00 0.00 0.01 0.02 0.02 0.02 0.03 0.02 0.01 0.00 0.00 0.01 0.07 0.14 0.11 0.09 0.13 0.16 0.09 0.14 0.15 0.06 0.01 0.00 0.00 0.00 0.01 0.00 0.00 0.01 0.03 0.06 0.06 0.04 0.06 0.05 0.03 0.02 0.03
0.02 0.02 0.02 0.01 0.01 0.01 0.00 0.01 0.01 0.00 0.00 0.00 0.01 0.02 0.01 0.02 0.03 0.05 0.01 0.00 0.01 0.01 0.01 0.00 0.00 0.00 0.00 0.02 0.06 0.06 0.09 0.15 0.08 0.04 0.11 0.09 0.02 0.01 0.00 0.00 0.01 0.02 0.02 0.01 0.01 0.01 0.01 0.01 0.02 0.07 0.06 0.07 0.04 0.04
0.02 0.02 0.02 0.02 0.01 0.01 0.01 0.01 0.00 0.00 0.00 0.00 0.05 0.04 0.01 0.02 0.02 0.03 0.09 0.08 0.02 0.00 0.00 0.00 0.01 0.00 0.01 0.03 0.05 0.03 0.08 0.04 0.01 0.06 0.08 0.04 0.01 0.03 0.05 0.07 0.01 0.01 0.01 0.05 0.06 0.04 0.05 0.03 0.03 0.11 0.08 0.10 0.09 0.06
0.02 0.02 0.01 0.01 0.01 0.01 0.01 0.00 0.00 0.00 0.00 0.03 0.04 0.02 0.01 0.02 0.01 0.01 0.02 0.10 0.03 0.00 0.00 0.01 0.01 0.02 0.03 0.09 0.03 0.01 0.00 0.01 0.04 0.05 0.12 0.02 0.07 0.04 0.09 0.21 0.18 0.09 0.03 0.08 0.18 0.12 0.11 0.10 0.06 0.11 0.06 0.03 0.03 0.01
0.02 0.01 0.01 0.01 0.01 0.00 0.00 0.00 0.00 0.00 0.01 0.01 0.01 0.02 0.00 0.00 0.00 0.00 0.00 0.00 0.00 0.00 0.01 0.02 0.02 0.01 0.00 0.01 0.00 0.00 0.00 0.00 0.04 0.08 0.04 0.01 0.04 0.03 0.10 0.21 0.29 0.39 0.28 0.20 0.18 0.19 0.16 0.16 0.13 0.13 0.05 0.01 0.00 0.00
0.01 0.01 0.01 0.01 0.00 0.00 0.00 0.00 0.00 0.00 0.00 0.00 0.00 0.00 0.02 0.14 0.03 0.02 0.02 0.02 0.03 0.04 0.02 0.03 0.02 0.01 0.00 0.00 0.01 0.02 0.04 0.06 0.05 0.05 0.03 0.02 0.02 0.04 0.05 0.10 0.12 0.20 0.29 0.30 0.25 0.23 0.24 0.16 0.11 0.08 0.04 0.01 0.01 0.00
0.02 0.02 0.00 0.00 0.00 0.00 0.00 0.00 0.00 0.00 0.00 0.00 0.00 0.00 0.10 0.24 0.06 0.05 0.06 0.05 0.05 0.05 0.04 0.04 0.03 0.01 0.01 0.02 0.05 0.06 0.11 0.07 0.03 0.03 0.03 0.03 0.06 0.05 0.02 0.02 0.03 0.03 0.08 0.14 0.19 0.22 0.23 0.19 0.11 0.05 0.01 0.00 0.00 0.00
0.01 0.00 0.00 0.00 0.01 0.00 0.00 0.00 0.00 0.00 0.00 0.00 0.02 0.01 0.01 0.02 0.17 0.13 0.02 0.01 0.05 0.10 0.07 0.09 0.08 0.05 0.03 0.07 0.14 0.16 0.08 0.04 0.04 0.06 0.04 0.03 0.02 0.05 0.01 0.03 0.03 0.03 0.03 0.07 0.11 0.13 0.10 0.06 0.02 0.01 0.00 0.00 0.00 0.00
0.00 0.00 0.00 0.00 0.02 0.01 0.00 0.00 0.00 0.01 0.01 0.00 0.00 0.00 0.00 0.02 0.02 0.00 0.00 0.00 0.01 0.06 0.17 0.14 0.05 0.07 0.13 0.21 0.15 0.07 0.06 0.04 0.05 0.10 0.10 0.07 0.03 0.02 0.04 0.14 0.10 0.11 0.12 0.16 0.08 0.10 0.09 0.07 0.02 0.02 0.00 0.00 0.00 0.00
0.00 0.00 0.00 0.00 0.00 0.00 0.00 0.00 0.00 0.00 0.02 0.00 0.00 0.00 0.01 0.03 0.03 0.01 0.00 0.00 0.01 0.02 0.06 0.09 0.10 0.14 0.19 0.19 0.21 0.10 0.07 0.04 0.04 0.05 0.08 0.12 0.13 0.09 0.04 0.18 0.19 0.16 0.16 0.18 0.14 0.14 0.14 0.10 0.04 0.00 0.00 0.00 0.00 0.00
0.00 0.00 0.00 0.00 0.00 0.00 0.00 0.00 0.00 0.00 0.00 0.00 0.00 0.00 0.01 0.01 0.05 0.03 0.01 0.00 0.01 0.03 0.08 0.09 0.13 0.15 0.21 0.24 0.18 0.09 0.07 0.05 0.03 0.04 0.02 0.04 0.04 0.02 0.02 0.03 0.03 0.02 0.02 0.03 0.04 0.08 0.08 0.03 0.00 0.00 0.00 0.00 0.00 0.00
0.00 0.00 0.00 0.00 0.00 0.00 0.00 0.00 0.00 0.00 0.00 0.00 0.00 0.00 0.01 0.02 0.02 0.06 0.06 0.03 0.06 0.06 0.08 0.12 0.16 0.16 0.16 0.20 0.15 0.11 0.12 0.08 0.06 0.03 0.02 0.01 0.01 0.01 0.01 0.01 0.00 0.00 0.00 0.00 0.00 0.01 0.02 0.00 0.00 0.00 0.00 0.00 0.00 0.00
0.00 0.00 0.00 0.00 0.00 0.00 0.00 0.00 0.00 0.00 0.01 0.00 0.01 0.01 0.01 0.03 0.03 0.05 0.09 0.06 0.07 0.07 0.08 0.09 0.17 0.26 0.25 0.25 0.19 0.12 0.11 0.10 0.14 0.15 0.07 0.04 0.01 0.00 0.01 0.00 0.00 0.00 0.00 0.00 0.00 0.00 0.01 0.00 0.01 0.01 0.01 0.01 0.00 0.01
0.00 0.00 0.00 0.00 0.00 0.00 0.00 0.00 0.00 0.00 0.00 0.00 0.01 0.02 0.02 0.02 0.02 0.01 0.02 0.05 0.06 0.03 0.04 0.08 0.07 0.10 0.15 0.17 0.21 0.22 0.19 0.16 0.16 0.17 0.15 0.11 0.05 0.03 0.01 0.00 0.00 0.00 0.00 0.00 0.01 0.01 0.01 0.01 0.01 0.01 0.01 0.01 0.01 0.01
0.01 0.00 0.00 0.00 0.00 0.00 0.00 0.00 0.00 0.00 0.00 0.00 0.00 0.01 0.01 0.01 0.04 0.02 0.02 0.04 0.01 0.00 0.01 0.02 0.05 0.04 0.04 0.07 0.13 0.18 0.23 0.24 0.25 0.25 0.23 0.17 0.12 0.10 0.09 0.06 0.04 0.03 0.01 0.00 0.02 0.02 0.03 0.02 0.01 0.00 0.01 0.00 0.01 0.02
0.00 0.00 0.00 0.00 0.00 0.00 0.00 0.00 0.00 0.00 0.00 0.00 0.00 0.00 0.00 0.00 0.03 0.04 0.02 0.02 0.01 0.01 0.01 0.01 0.01 0.01 0.01 0.01 0.02 0.05 0.09 0.15 0.19 0.21 0.29 0.26 0.23 0.20 0.14 0.10 0.09 0.11 0.09 0.02 0.00 0.01 0.02 0.02 0.01 0.01 0.01 0.01 0.02 0.02
0.00 0.00 0.00 0.00 0.00 0.00 0.00 0.00 0.00 0.00 0.00 0.00 0.00 0.00 0.00 0.01 0.03 0.02 0.01 0.01 0.00 0.00 0.00 0.00 0.00 0.01 0.01 0.01 0.01 0.02 0.02 0.03 0.06 0.15 0.23 0.25 0.28 0.33 0.28 0.21 0.16 0.13 0.11 0.07 0.03 0.01 0.01 0.01 0.01 0.00 0.01 0.01 0.02 0.01
0.01 0.00 0.00 0.00 0.00 0.00 0.00 0.00 0.00 0.00 0.00 0.00 0.00 0.00 0.00 0.00 0.02 0.01 0.00 0.00 0.00 0.01 0.00 0.00 0.00 0.01 0.00 0.01 0.01 0.01 0.01 0.03 0.04 0.05 0.06 0.09 0.17 0.28 0.29 0.24 0.22 0.23 0.23 0.21 0.15 0.10 0.05 0.02 0.02 0.01 0.01 0.01 0.02 0.01
0.01 0.00 0.00 0.00 0.00 0.00 0.00 0.00 0.00 0.00 0.00 0.00 0.00 0.01 0.01 0.01 0.01 0.01 0.00 0.00 0.00 0.01 0.01 0.00 0.01 0.01 0.02 0.01 0.00 0.00 0.00 0.00 0.01 0.01 0.01 0.05 0.07 0.13 0.20 0.20 0.17 0.16 0.21 0.25 0.25 0.21 0.14 0.07 0.02 0.01 0.01 0.01 0.01 0.01
0.01 0.00 0.00 0.00 0.00 0.01 0.01 0.01 0.01 0.00 0.00 0.00 0.00 0.00 0.01 0.02 0.01 0.00 0.00 0.00 0.02 0.02 0.00 0.00 0.00 0.00 0.00 0.01 0.00 0.00 0.00 0.00 0.00 0.00 0.00 0.02 0.06 0.08 0.09 0.11 0.13 0.14 0.14 0.17 0.21 0.23 0.22 0.19 0.16 0.11 0.05 0.04 0.02 0.01
0.00 0.00 0.00 0.00 0.01 0.03 0.00 0.00 0.00 0.00 0.00 0.00 0.00 0.00 0.02 0.01 0.01 0.00 0.00 0.00 0.00 0.00 0.00 0.01 0.00 0.00 0.00 0.00 0.00 0.00 0.01 0.00 0.00 0.00 0.00 0.01 0.01 0.02 0.01 0.03 0.05 0.06 0.08 0.10 0.12 0.16 0.18 0.18 0.15 0.11 0.10 0.09 0.07 0.04
0.00 0.00 0.00 0.00 0.02 0.01 0.00 0.00 0.00 0.00 0.00 0.00 0.00 0.00 0.00 0.00 0.02 0.02 0.00 0.00 0.00 0.00 0.01 0.01 0.01 0.00 0.00 0.00 0.00 0.00 0.00 0.00 0.00 0.00 0.00 0.00 0.00 0.00 0.00 0.00 0.00 0.00 0.01 0.02 0.04 0.07 0.09 0.11 0.11 0.10 0.09 0.08 0.09 0.09
0.00 0.00 0.00 0.00 0.00 0.00 0.00 0.00 0.00 0.00 0.00 0.00 0.03 0.01 0.00 0.00 0.02 0.03 0.02 0.01 0.01 0.01 0.00 0.00 0.00 0.00 0.00 0.00 0.00 0.00 0.00 0.00 0.00 0.00 0.00 0.00 0.00 0.00 0.00 0.00 0.00 0.00 0.00 0.00 0.00 0.01 0.02 0.04 0.05 0.04 0.05 0.05 0.06 0.06

GFSWCAN_prec_precacc12_231.txt.gz
Total_Precipitation_Accumulation
0.03 0.03 0.03 0.04 0.04 0.03 0.03 0.03 0.02 0.02 0.02 0.04 0.04 0.04 0.04 0.12 0.17 0.24 0.26 0.15 0.41 0.65 0.26 0.06 0.02 0.06 0.09 0.17 0.31 0.19 0.26 0.47 0.53 0.50 0.32 0.17 0.08 0.04 0.13 0.13 0.19 0.42 0.50 0.59 0.80 0.90 0.54 0.05 0.00 0.01 0.03 0.01 0.00 0.00
0.03 0.04 0.04 0.04 0.03 0.03 0.03 0.02 0.02 0.03 0.04 0.03 0.02 0.03 0.04 0.08 0.15 0.29 0.35 0.17 0.27 0.75 0.54 0.10 0.02 0.01 0.03 0.05 0.19 0.26 0.14 0.08 0.11 0.16 0.11 0.04 0.07 0.10 0.07 0.10 0.09 0.18 0.40 0.40 0.36 0.39 0.23 0.09 0.07 0.02 0.00 0.00 0.00 0.00
0.04 0.04 0.04 0.03 0.02 0.03 0.03 0.02 0.04 0.03 0.02 0.02 0.02 0.03 0.07 0.07 0.10 0.30 0.35 0.23 0.33 0.40 0.22 0.18 0.13 0.03 0.02 0.03 0.08 0.28 0.12 0.03 0.02 0.04 0.09 0.08 0.04 0.09 0.16 0.13 0.03 0.06 0.14 0.32 0.35 0.18 0.09 0.08 0.08 0.10 0.07 0.02 0.00 0.00
0.04 0.04 0.04 0.03 0.03 0.03 0.03 0.03 0.03 0.02 0.02 0.02 0.02 0.04 0.06 0.07 0.12 0.19 0.24 0.19 0.22 0.14 0.07 0.06 0.07 0.07 0.03 0.03 0.04 0.11 0.08 0.02 0.01 0.04 0.12 0.22 0.16 0.06 0.04 0.09 0.11 0.05 0.10 0.21 0.26 0.16 0.11 0.09 0.03 0.01 0.03 0.07 0.05 0.02
0.04 0.03 0.03 0.03 0.03 0.03 0.03 0.02 0.02 0.02 0.02 0.02 0.02 0.03 0.10 0.12 0.15 0.12 0.10 0.14 0.13 0.06 0.06 0.01 0.01 0.04 0.05 0.04 0.06 0.06 0.06 0.03 0.05 0.10 0.18 0.13 0.05 0.05 0.08 0.10 0.08 0.05 0.08 0.08 0.08 0.03 0.02 0.05 0.06 0.04 0.03 0.04 0.08 0.06
0.03 0.03 0.03 0.03 0.03 0.04 0.02 0.02 0.02 0.02 0.01 0.01 0.01 0.05 0.22 0.25 0.14 0.11 0.08 0.01 0.01 0.00 0.00 0.00 0.00 0.00 0.01 0.03 0.06 0.07 0.08 0.05 0.03 0.04 0.05 0.04 0.04 0.03 0.07 0.08 0.06 0.02 0.01 0.02 0.02 0.00 0.00 0.00 0.00 0.02 0.05 0.03 0.05 0.08
0.03 0.03 0.03 0.03 0.03 0.03 0.02 0.02 0.02 0.01 0.01 0.00 0.00 0.00 0.07 0.21 0.18 0.17 0.08 0.01 0.02 0.03 0.02 0.00 0.00 0.00 0.00 0.00 0.02 0.04 0.07 0.08 0.05 0.08 0.07 0.02 0.04 0.09 0.07 0.01 0.03 0.05 0.04 0.02 0.02 0.05 0.03 0.01 0.00 0.00 0.00 0.02 0.06 0.08
0.03 0.03 0.03 0.03 0.03 0.03 0.01 0.02 0.01 0.00 0.00 0.00 0.00 0.00 0.00 0.03 0.07 0.11 0.08 0.07 0.09 0.22 0.12 0.08 0.02 0.00 0.00 0.01 0.03 0.08 0.21 0.32 0.29 0.18 0.13 0.07 0.04 0.10 0.13 0.02 0.00 0.07 0.10 0.10 0.09 0.05 0.06 0.05 0.03 0.02 0.01 0.01 0.02 0.03
0.02 0.02 0.02 0.03 0.03 0.02 0.01 0.01 0.01 0.00 0.00 0.00 0.00 0.00 0.00 0.00 0.00 0.00 0.02 0.08 0.14 0.39 0.32 0.11 0.03 0.02 0.01 0.03 0.06 0.13 0.24 0.33 0.29 0.28 0.19 0.19 0.15 0.13 0.03 0.00 0.00 0.01 0.10 0.19 0.15 0.14 0.13 0.11 0.10 0.07 0.05 0.05 0.07 0.05
0.02 0.03 0.03 0.03 0.03 0.01 0.01 0.01 0.00 0.01 0.00 0.00 0.00 0.00 0.01 0.00 0.00 0.00 0.01 0.02 0.11 0.28 0.24 0.10 0.04 0.08 0.05 0.06 0.12 0.11 0.17 0.19 0.22 0.14 0.18 0.21 0.07 0.00 0.00 0.00 0.00 0.00 0.01 0.07 0.17 0.23 0.22 0.14 0.14 0.09 0.06 0.05 0.06 0.07
0.03 0.03 0.03 0.02 0.02 0.02 0.01 0.00 0.01 0.01 0.00 0.00 0.00 0.01 0.00 0.00 0.00 0.01 0.01 0.02 0.03 0.03 0.02 0.01 0.01 0.00 0.01 0.07 0.13 0.12 0.09 0.10 0.14 0.06 0.14 0.14 0.04 0.00 0.00 0.00 0.00 0.01 0.00 0.00 0.01 0.03 0.06 0.06 0.04 0.06 0.05 0.04 0.03 0.04
0.03 0.02 0.02 0.02 0.02 0.02 0.01 0.02 0.02 0.01 0.00 0.00 0.01 0.02 0.01 0.01 0.04 0.06 0.02 0.01 0.01 0.01 0.00 0.00 0.00 0.00 0.00 0.02 0.07 0.08 0.10 0.13 0.07 0.04 0.11 0.07 0.02 0.00 0.00 0.00 0.01 0.02 0.02 0.01 0.01 0.01 0.01 0.01 0.02 0.07 0.09 0.11 0.09 0.06
0.03 0.02 0.02 0.02 0.02 0.02 0.01 0.02 0.02 0.00 0.00 0.00 0.05 0.06 0.02 0.01 0.02 0.03 0.09 0.11 0.01 0.00 0.00 0.00 0.00 0.00 0.01 0.04 0.09 0.06 0.08 0.03 0.01 0.05 0.06 0.02 0.01 0.03 0.05 0.07 0.01 0.01 0.01 0.05 0.06 0.04 0.05 0.03 0.03 0.15 0.25 0.31 0.32 0.24
0.03 0.02 0.02 0.02 0.02 0.01 0.02 0.01 0.00 0.01 0.01 0.03 0.04 0.02 0.01 0.00 0.00 0.00 0.00 0.01 0.02 0.00 0.00 0.00 0.00 0.00 0.01 0.11 0.06 0.01 0.00 0.00 0.03 0.05 0.08 0.00 0.07 0.04 0.13 0.22 0.19 0.11 0.06 0.11 0.22 0.13 0.11 0.11 0.08 0.16 0.32 0.35 0.36 0.31
0.03 0.02 0.01 0.01 0.02 0.01 0.00 0.00 0.00 0.00 0.01 0.02 0.03 0.01 0.00 0.00 0.00 0.00 0.00 0.00 0.00 0.00 0.00 0.01 0.02 0.01 0.00 0.02 0.01 0.00 0.00 0.00 0.05 0.12 0.04 0.01 0.04 0.06 0.16 0.22 0.31 0.44 0.33 0.27 0.40 0.38 0.29 0.25 0.24 0.31 0.32 0.27 0.25 0.21
0.03 0.02 0.01 0.01 0.00 0.00 0.00 0.00 0.00 0.01 0.01 0.01 0.01 0.00 0.00 0.09 0.02 0.01 0.02 0.01 0.01 0.02 0.04 0.05 0.05 0.02 0.00 0.00 0.01 0.02 0.05 0.10 0.08 0.05 0.04 0.03 0.03 0.05 0.07 0.12 0.14 0.24 0.33 0.35 0.33 0.41 0.44 0.44 0.47 0.43 0.31 0.22 0.22 0.19
0.05 0.01 0.00 0.00 0.00 0.00 0.00 0.00 0.01 0.04 0.00 0.00 0.00 0.00 0.03 0.13 0.04 0.03 0.04 0.03 0.02 0.03 0.02 0.02 0.03 0.02 0.02 0.02 0.07 0.10 0.10 0.05 0.04 0.04 0.04 0.04 0.08 0.06 0.03 0.03 0.08 0.05 0.12 0.21 0.27 0.36 0.42 0.46 0.39 0.30 0.23 0.20 0.17 0.13
0.04 0.00 0.00 0.00 0.01 0.00 0.00 0.00 0.00 0.00 0.00 0.00 0.00 0.00 0.00 0.01 0.11 0.10 0.01 0.00 0.02 0.05 0.04 0.08 0.09 0.07 0.03 0.06 0.11 0.15 0.06 0.03 0.05 0.08 0.06 0.04 0.03 0.05 0.02 0.04 0.07 0.09 0.09 0.18 0.22 0.25 0.23 0.19 0.12 0.13 0.11 0.10 0.09 0.08
0.04 0.02 0.01 0.01 0.03 0.03 0.00 0.00 0.00 0.00 0.00 0.00 0.00 0.00 0.00 0.01 0.03 0.00 0.00 0.00 0.02 0.03 0.16 0.12 0.04 0.03 0.07 0.14 0.12 0.07 0.06 0.05 0.05 0.10 0.11 0.08 0.03 0.04 0.06 0.15 0.13 0.20 0.19 0.26 0.17 0.14 0.12 0.09 0.07 0.09 0.10 0.08 0.03 0.02
0.03 0.01 0.00 0.00 0.01 0.00 0.00 0.00 0.00 0.00 0.01 0.00 0.00 0.00 0.00 0.01 0.06 0.02 0.00 0.00 0.01 0.01 0.05 0.07 0.07 0.09 0.12 0.13 0.19 0.10 0.08 0.05 0.05 0.07 0.08 0.13 0.15 0.13 0.05 0.20 0.25 0.21 0.22 0.22 0.20 0.24 0.22 0.20 0.19 0.08 0.02 0.00 0.01 0.01
0.01 0.00 0.00 0.00 0.00 0.00 0.01 0.00 0.00 0.00 0.00 0.00 0.00 0.00 0.00 0.03 0.06 0.04 0.01 0.00 0.00 0.01 0.03 0.06 0.10 0.11 0.15 0.20 0.17 0.10 0.07 0.06 0.05 0.07 0.07 0.07 0.06 0.03 0.03 0.04 0.05 0.03 0.05 0.08 0.10 0.20 0.19 0.07 0.01 0.00 0.00 0.00 0.00 0.00
0.02 0.00 0.00 0.00 0.00 0.00 0.00 0.00 0.00 0.00 0.00 0.00 0.00 0.00 0.00 0.01 0.01 0.03 0.02 0.00 0.02 0.04 0.05 0.08 0.10 0.14 0.16 0.18 0.16 0.14 0.13 0.08 0.06 0.04 0.03 0.02 0.01 0.01 0.02 0.02 0.00 0.01 0.00 0.01 0.00 0.05 0.09 0.01 0.00 0.00 0.00 0.00 0.00 0.00
0.00 0.00 0.01 0.02 0.02 0.00 0.00 0.00 0.00 0.00 0.00 0.00 0.00 0.00 0.01 0.01 0.01 0.01 0.02 0.02 0.03 0.04 0.06 0.07 0.10 0.16 0.17 0.21 0.20 0.13 0.12 0.12 0.12 0.13 0.08 0.05 0.03 0.01 0.01 0.01 0.00 0.00 0.00 0.01 0.00 0.01 0.02 0.01 0.00 0.00 0.01 0.01 0.00 0.01
0.00 0.00 0.01 0.01 0.01 0.00 0.00 0.00 0.00 0.00 0.00 0.00 0.00 0.02 0.01 0.02 0.01 0.00 0.00 0.01 0.02 0.01 0.02 0.04 0.03 0.06 0.11 0.16 0.20 0.22 0.20 0.17 0.17 0.16 0.13 0.11 0.07 0.05 0.02 0.01 0.00 0.00 0.00 0.00 0.00 0.01 0.01 0.01 0.01 0.01 0.01 0.01 0.01 0.01
0.02 0.00 0.00 0.00 0.00 0.00 0.00 0.00 0.00 0.00 0.00 0.00 0.00 0.00 0.00 0.01 0.02 0.01 0.01 0.01 0.00 0.00 0.00 0.01 0.02 0.02 0.03 0.07 0.12 0.18 0.23 0.23 0.24 0.24 0.20 0.15 0.12 0.11 0.09 0.08 0.05 0.02 0.02 0.01 0.02 0.02 0.03 0.03 0.02 0.01 0.01 0.00 0.01 0.01
0.01 0.00 0.00 0.00 0.00 0.00 0.00 0.00 0.00 0.00 0.00 0.00 0.00 0.00 0.00 0.00 0.00 0.00 0.01 0.00 0.00 0.00 0.00 0.00 0.00 0.00 0.00 0.01 0.01 0.04 0.08 0.14 0.17 0.19 0.26 0.23 0.22 0.20 0.18 0.14 0.12 0.10 0.07 0.04 0.02 0.01 0.01 0.01 0.01 0.01 0.01 0.01 0.02 0.01
0.00 0.01 0.00 0.00 0.00 0.00 0.00 0.00 0.00 0.00 0.00 0.00 0.00 0.00 0.00 0.00 0.00 0.00 0.01 0.00 0.00 0.00 0.00 0.00 0.00 0.00 0.01 0.01 0.01 0.01 0.01 0.02 0.05 0.12 0.20 0.22 0.25 0.29 0.28 0.24 0.20 0.15 0.11 0.07 0.04 0.02 0.01 0.00 0.01 0.00 0.00 0.01 0.02 0.01
0.01 0.00 0.00 0.00 0.00 0.00 0.00 0.00 0.00 0.00 0.00 0.00 0.00 0.00 0.00 0.00 0.00 0.00 0.00 0.00 0.00 0.00 0.00 0.00 0.00 0.00 0.00 0.00 0.01 0.01 0.01 0.01 0.01 0.02 0.03 0.07 0.14 0.22 0.27 0.26 0.24 0.22 0.22 0.21 0.16 0.11 0.05 0.01 0.00 0.00 0.00 0.00 0.01 0.01
0.01 0.00 0.00 0.00 0.00 0.00 0.00 0.00 0.00 0.00 0.00 0.00 0.00 0.00 0.01 0.01 0.01 0.00 0.00 0.00 0.00 0.00 0.00 0.00 0.00 0.00 0.01 0.00 0.00 0.00 0.00 0.00 0.00 0.00 0.00 0.02 0.02 0.07 0.14 0.18 0.17 0.17 0.21 0.26 0.27 0.23 0.16 0.09 0.03 0.00 0.00 0.01 0.01 0.00
0.01 0.00 0.00 0.00 0.00 0.00 0.01 0.00 0.00 0.00 0.00 0.00 0.00 0.00 0.01 0.02 0.02 0.01 0.00 0.00 0.00 0.00 0.00 0.00 0.00 0.00 0.00 0.00 0.00 0.00 0.00 0.00 0.00 0.00 0.00 0.01 0.04 0.04 0.05 0.08 0.11 0.12 0.13 0.16 0.21 0.26 0.27 0.23 0.20 0.14 0.07 0.03 0.03 0.02
0.00 0.00 0.00 0.00 0.01 0.02 0.00 0.00 0.00 0.00 0.00 0.00 0.00 0.00 0.01 0.01 0.01 0.01 0.01 0.01 0.00 0.00 0.00 0.00 0.00 0.00 0.00 0.00 0.00 0.00 0.00 0.00 0.00 0.00 0.00 0.00 0.00 0.00 0.01 0.02 0.03 0.05 0.06 0.08 0.12 0.17 0.23 0.24 0.20 0.15 0.10 0.08 0.06 0.04
0.01 0.01 0.00 0.00 0.01 0.00 0.00 0.00 0.00 0.00 0.00 0.00 0.00 0.00 0.00 0.00 0.01 0.01 0.01 0.01 0.00 0.00 0.00 0.00 0.00 0.00 0.00 0.00 0.00 0.00 0.00 0.00 0.00 0.00 0.00 0.00 0.00 0.00 0.00 0.00 0.00 0.00 0.01 0.02 0.04 0.09 0.13 0.17 0.19 0.17 0.14 0.11 0.10 0.10
0.01 0.00 0.00 0.00 0.00 0.00 0.00 0.00 0.00 0.00 0.00 0.00 0.02 0.01 0.00 0.00 0.01 0.02 0.02 0.01 0.01 0.00 0.00 0.00 0.00 0.00 0.00 0.00 0.00 0.00 0.00 0.00 0.00 0.00 0.00 0.00 0.00 0.00 0.00 0.00 0.00 0.00 0.00 0.00 0.00 0.01 0.05 0.09 0.12 0.12 0.11 0.09 0.09 0.09

GFSWCAN_prec_precacc12_234.txt.gz
Total_Precipitation_Accumulation
0.04 0.03 0.03 0.04 0.05 0.05 0.04 0.04 0.03 0.02 0.02 0.03 0.04 0.04 0.03 0.05 0.10 0.20 0.21 0.12 0.41 0.67 0.25 0.05 0.03 0.08 0.11 0.20 0.39 0.22 0.34 0.49 0.54 0.60 0.31 0.13 0.02 0.00 0.01 0.01 0.02 0.03 0.17 0.40 0.52 0.69 0.50 0.05 0.00 0.01 0.03 0.01 0.00 0.00
0.03 0.03 0.04 0.04 0.04 0.03 0.03 0.03 0.03 0.03 0.05 0.04 0.03 0.03 0.03 0.06 0.11 0.24 0.29 0.08 0.21 0.82 0.57 0.07 0.02 0.01 0.03 0.06 0.22 0.33 0.22 0.12 0.13 0.17 0.11 0.02 0.02 0.01 0.01 0.01 0.00 0.03 0.08 0.11 0.24 0.34 0.22 0.09 0.07 0.02 0.00 0.00 0.00 0.00
0.03 0.03 0.03 0.04 0.04 0.03 0.03 0.04 0.05 0.04 0.03 0.02 0.02 0.03 0.05 0.07 0.09 0.26 0.37 0.23 0.41 0.62 0.33 0.18 0.12 0.03 0.02 0.03 0.09 0.45 0.21 0.05 0.07 0.02 0.06 0.06 0.03 0.00 0.01 0.01 0.01 0.00 0.01 0.07 0.13 0.13 0.09 0.08 0.08 0.10 0.07 0.02 0.00 0.00
0.03 0.03 0.04 0.03 0.03 0.03 0.03 0.04 0.04 0.02 0.02 0.02 0.03 0.04 0.05 0.06 0.11 0.18 0.27 0.23 0.43 0.45 0.21 0.06 0.07 0.07 0.03 0.03 0.04 0.17 0.19 0.13 0.11 0.10 0.19 0.17 0.09 0.02 0.01 0.01 0.02 0.01 0.06 0.09 0.11 0.10 0.10 0.09 0.03 0.01 0.03 0.07 0.05 0.02
0.03 0.03 0.03 0.03 0.03 0.03 0.03 0.04 0.02 0.01 0.02 0.02 0.02 0.03 0.09 0.11 0.12 0.12 0.13 0.16 0.20 0.31 0.18 0.01 0.01 0.04 0.05 0.04 0.07 0.09 0.17 0.19 0.18 0.22 0.25 0.16 0.02 0.01 0.02 0.03 0.02 0.01 0.00 0.04 0.05 0.02 0.02 0.05 0.06 0.04 0.03 0.04 0.08 0.06
0.03 0.03 0.03 0.03 0.03 0.03 0.03 0.03 0.02 0.02 0.02 0.01 0.01 0.01 0.13 0.22 0.14 0.14 0.12 0.03 0.06 0.13 0.10 0.01 0.00 0.00 0.01 0.03 0.07 0.12 0.17 0.21 0.20 0.15 0.10 0.05 0.01 0.02 0.06 0.02 0.00 0.00 0.00 0.01 0.01 0.00 0.00 0.00 0.00 0.02 0.05 0.03 0.05 0.08
0.03 0.03 0.03 0.03 0.03 0.03 0.03 0.03 0.02 0.01 0.01 0.00 0.00 0.00 0.02 0.16 0.18 0.20 0.15 0.08 0.11 0.11 0.08 0.01 0.00 0.00 0.00 0.00 0.02 0.05 0.11 0.16 0.15 0.14 0.06 0.01 0.00 0.04 0.06 0.01 0.00 0.00 0.00 0.00 0.00 0.00 0.00 0.00 0.00 0.00 0.00 0.02 0.06 0.08
0.02 0.03 0.03 0.03 0.03 0.03 0.03 0.02 0.01 0.00 0.00 0.00 0.00 0.00 0.00 0.01 0.06 0.10 0.07 0.12 0.18 0.26 0.16 0.08 0.02 0.01 0.00 0.01 0.02 0.03 0.09 0.16 0.18 0.12 0.06 0.01 0.03 0.07 0.06 0.00 0.00 0.00 0.01 0.00 0.00 0.00 0.00 0.00 0.00 0.00 0.00 0.01 0.01 0.03
0.03 0.03 0.03 0.03 0.03 0.03 0.02 0.01 0.01 0.00 0.00 0.00 0.00 0.00 0.00 0.01 0.01 0.00 0.01 0.04 0.10 0.34 0.35 0.11 0.03 0.03 0.02 0.04 0.05 0.07 0.11 0.17 0.13 0.14 0.06 0.09 0.09 0.10 0.02 0.00 0.00 0.00 0.00 0.00 0.01 0.01 0.02 0.04 0.04 0.04 0.04 0.05 0.07 0.05
0.03 0.02 0.03 0.03 0.03 0.02 0.02 0.02 0.01 0.01 0.01 0.00 0.00 0.00 0.01 0.01 0.00 0.00 0.01 0.04 0.14 0.30 0.28 0.11 0.05 0.10 0.05 0.06 0.10 0.06 0.11 0.07 0.13 0.06 0.08 0.15 0.05 0.00 0.00 0.00 0.00 0.00 0.00 0.01 0.00 0.04 0.15 0.13 0.13 0.09 0.06 0.05 0.06 0.07
0.03 0.03 0.03 0.02 0.02 0.03 0.02 0.02 0.02 0.02 0.00 0.00 0.00 0.00 0.00 0.00 0.01 0.01 0.01 0.04 0.06 0.06 0.04 0.02 0.01 0.02 0.01 0.07 0.13 0.13 0.10 0.07 0.10 0.02 0.08 0.07 0.01 0.00 0.00 0.00 0.00 0.01 0.00 0.00 0.00 0.01 0.05 0.06 0.04 0.06 0.05 0.04 0.03 0.05
0.03 0.03 0.03 0.02 0.03 0.03 0.02 0.02 0.02 0.02 0.00 0.00 0.01 0.03 0.01 0.02 0.04 0.07 0.04 0.01 0.02 0.02 0.01 0.01 0.01 0.00 0.00 0.02 0.08 0.10 0.11 0.11 0.07 0.03 0.08 0.02 0.00 0.00 0.00 0.00 0.01 0.02 0.02 0.01 0.01 0.01 0.01 0.01 0.02 0.07 0.09 0.11 0.09 0.06
0.03 0.03 0.04 0.03 0.03 0.03 0.03 0.02 0.03 0.01 0.00 0.01 0.07 0.08 0.03 0.01 0.03 0.03 0.07 0.12 0.01 0.01 0.01 0.00 0.01 0.00 0.01 0.05 0.10 0.12 0.11 0.04 0.02 0.04 0.02 0.00 0.01 0.02 0.05 0.07 0.01 0.01 0.02 0.07 0.07 0.04 0.05 0.03 0.03 0.15 0.25 0.32 0.35 0.29
0.03 0.03 0.03 0.03 0.03 0.02 0.02 0.02 0.01 0.02 0.02 0.04 0.05 0.03 0.02 0.00 0.00 0.00 0.01 0.02 0.00 0.00 0.00 0.01 0.02 0.01 0.02 0.12 0.08 0.04 0.01 0.01 0.03 0.03 0.03 0.01 0.07 0.03 0.12 0.22 0.19 0.11 0.06 0.13 0.23 0.13 0.11 0.11 0.08 0.16 0.33 0.40 0.44 0.47
0.03 0.03 0.02 0.02 0.02 0.01 0.01 0.00 0.01 0.02 0.02 0.03 0.04 0.02 0.00 0.00 0.00 0.00 0.00 0.00 0.00 0.00 0.01 0.03 0.04 0.03 0.03 0.04 0.04 0.03 0.01 0.01 0.07 0.14 0.04 0.02 0.05 0.06 0.16 0.22 0.31 0.45 0.34 0.29 0.43 0.42 0.32 0.29 0.29 0.36 0.39 0.36 0.36 0.36
0.03 0.03 0.00 0.01 0.00 0.00 0.00 0.00 0.01 0.02 0.03 0.01 0.01 0.01 0.00 0.03 0.02 0.01 0.02 0.02 0.01 0.01 0.05 0.08 0.10 0.09 0.03 0.02 0.03 0.04 0.07 0.12 0.09 0.05 0.04 0.03 0.04 0.06 0.09 0.13 0.15 0.25 0.34 0.37 0.36 0.47 0.49 0.50 0.57 0.63 0.57 0.45 0.40 0.37
0.05 0.03 0.00 0.01 0.01 0.01 0.00 0.01 0.02 0.09 0.03 0.01 0.00 0.00 0.00 0.03 0.03 0.03 0.03 0.03 0.01 0.03 0.04 0.03 0.04 0.05 0.04 0.03 0.10 0.13 0.12 0.05 0.04 0.04 0.04 0.05 0.10 0.07 0.03 0.02 0.08 0.08 0.16 0.25 0.30 0.40 0.50 0.60 0.52 0.43 0.40 0.41 0.36 0.34
0.05 0.01 0.02 0.04 0.05 0.01 0.00 0.00 0.01 0.01 0.02 0.00 0.00 0.00 0.00 0.00 0.06 0.09 0.01 0.00 0.02 0.04 0.05 0.07 0.07 0.08 0.05 0.04 0.08 0.11 0.05 0.03 0.05 0.07 0.06 0.05 0.03 0.06 0.02 0.03 0.07 0.13 0.16 0.25 0.29 0.32 0.35 0.29 0.19 0.25 0.25 0.25 0.24 0.25
0.05 0.03 0.04 0.06 0.08 0.05 0.01 0.00 0.01 0.01 0.00 0.00 0.00 0.00 0.00 0.01 0.03 0.00 0.00 0.00 0.03 0.03 0.14 0.11 0.03 0.02 0.03 0.06 0.07 0.05 0.05 0.05 0.04 0.07 0.09 0.08 0.04 0.05 0.06 0.15 0.15 0.27 0.28 0.33 0.25 0.21 0.18 0.15 0.12 0.15 0.18 0.12 0.08 0.08
0.04 0.02 0.02 0.03 0.05 0.04 0.02 0.00 0.01 0.01 0.01 0.00 0.00 0.00 0.00 0.01 0.06 0.02 0.00 0.00 0.02 0.01 0.03 0.06 0.06 0.05 0.07 0.06 0.09 0.09 0.08 0.06 0.06 0.06 0.06 0.13 0.17 0.14 0.06 0.21 0.26 0.23 0.28 0.28 0.27 0.34 0.32 0.29 0.29 0.15 0.04 0.01 0.01 0.02
0.04 0.00 0.00 0.01 0.03 0.03 0.02 0.01 0.01 0.01 0.00 0.00 0.00 0.00 0.01 0.04 0.06 0.05 0.01 0.00 0.00 0.01 0.02 0.03 0.05 0.06 0.10 0.10 0.10 0.08 0.07 0.06 0.05 0.09 0.07 0.07 0.06 0.03 0.03 0.04 0.05 0.03 0.05 0.10 0.15 0.26 0.25 0.10 0.02 0.00 0.00 0.00 0.00 0.01
0.06 0.02 0.03 0.02 0.03 0.04 0.03 0.00 0.00 0.00 0.00 0.00 0.00 0.00 0.01 0.03 0.02 0.01 0.00 0.00 0.01 0.02 0.02 0.03 0.05 0.07 0.06 0.06 0.09 0.10 0.10 0.08 0.07 0.04 0.04 0.03 0.02 0.01 0.02 0.02 0.00 0.00 0.01 0.01 0.03 0.12 0.11 0.01 0.00 0.00 0.00 0.00 0.00 0.00
0.10 0.06 0.05 0.05 0.07 0.02 0.00 0.00 0.01 0.00 0.00 0.00 0.00 0.01 0.02 0.01 0.01 0.00 0.01 0.01 0.01 0.01 0.03 0.02 0.03 0.07 0.10 0.12 0.13 0.08 0.06 0.08 0.07 0.07 0.07 0.06 0.04 0.02 0.01 0.01 0.00 0.00 0.01 0.01 0.01 0.05 0.06 0.01 0.00 0.00 0.01 0.01 0.00 0.01
0.11 0.05 0.04 0.03 0.05 0.02 0.00 0.00 0.01 0.01 0.00 0.00 0.01 0.02 0.01 0.02 0.01 0.00 0.00 0.00 0.00 0.00 0.00 0.01 0.00 0.01 0.03 0.08 0.13 0.17 0.15 0.13 0.12 0.11 0.10 0.09 0.07 0.05 0.03 0.02 0.01 0.00 0.01 0.01 0.00 0.01 0.04 0.04 0.02 0.01 0.01 0.01 0.01 0.01
0.11 0.03 0.01 0.01 0.01 0.01 0.00 0.00 0.00 0.00 0.00 0.00 0.00 0.00 0.00 0.01 0.01 0.00 0.00 0.00 0.00 0.00 0.00 0.00 0.00 0.00 0.00 0.02 0.06 0.12 0.17 0.19 0.20 0.20 0.18 0.13 0.10 0.10 0.09 0.08 0.05 0.03 0.02 0.02 0.02 0.02 0.03 0.04 0.04 0.03 0.02 0.00 0.01 0.00
0.04 0.00 0.00 0.00 0.01 0.00 0.00 0.00 0.00 0.00 0.00 0.00 0.00 0.00 0.00 0.00 0.00 0.00 0.00 0.00 0.00 0.00 0.00 0.00 0.00 0.00 0.00 0.01 0.01 0.02 0.05 0.11 0.14 0.16 0.22 0.20 0.19 0.19 0.18 0.16 0.13 0.09 0.06 0.05 0.04 0.03 0.02 0.02 0.02 0.03 0.03 0.02 0.01 0.01
0.01 0.01 0.01 0.00 0.01 0.00 0.00 0.00 0.00 0.00 0.00 0.00 0.00 0.00 0.00 0.00 0.00 0.00 0.01 0.00 0.00 0.00 0.00 0.00 0.00 0.00 0.01 0.01 0.01 0.01 0.01 0.01 0.03 0.09 0.15 0.17 0.20 0.23 0.25 0.24 0.20 0.16 0.12 0.08 0.05 0.03 0.03 0.01 0.01 0.01 0.01 0.02 0.01 0.01
0.01 0.00 0.01 0.01 0.00 0.00 0.00 0.00 0.00 0.00 0.00 0.00 0.00 0.00 0.00 0.00 0.00 0.00 0.00 0.00 0.00 0.00 0.00 0.00 0.00 0.00 0.00 0.00 0.00 0.00 0.00 0.00 0.00 0.01 0.02 0.04 0.09 0.14 0.19 0.21 0.19 0.17 0.19 0.21 0.16 0.10 0.05 0.03 0.01 0.00 0.00 0.01 0.01 0.01
0.01 0.00 0.00 0.01 0.02 0.01 0.00 0.00 0.00 0.00 0.00 0.00 0.00 0.00 0.01 0.01 0.01 0.01 0.00 0.00 0.00 0.00 0.00 0.00 0.00 0.00 0.00 0.00 0.00 0.00 0.00 0.00 0.00 0.00 0.00 0.00 0.00 0.02 0.06 0.10 0.12 0.14 0.18 0.23 0.26 0.23 0.15 0.08 0.03 0.01 0.00 0.00 0.00 0.00
0.01 0.01 0.01 0.01 0.01 0.01 0.01 0.00 0.00 0.00 0.00 0.00 0.00 0.00 0.01 0.02 0.02 0.01 0.01 0.01 0.00 0.00 0.00 0.00 0.00 0.00 0.00 0.00 0.00 0.00 0.00 0.00 0.00 0.00 0.00 0.00 0.01 0.02 0.02 0.04 0.06 0.08 0.11 0.16 0.21 0.27 0.28 0.25 0.21 0.17 0.08 0.03 0.02 0.02
0.01 0.00 0.00 0.01 0.01 0.01 0.00 0.00 0.00 0.00 0.00 0.00 0.00 0.00 0.01 0.01 0.02 0.02 0.01 0.01 0.01 0.00 0.00 0.00 0.00 0.00 0.00 0.00 0.00 0.00 0.00 0.00 0.00 0.00 0.00 0.00 0.00 0.00 0.00 0.01 0.02 0.03 0.05 0.08 0.12 0.18 0.27 0.28 0.22 0.16 0.11 0.07 0.05 0.03
0.02 0.01 0.00 0.01 0.02 0.01 0.00 0.00 0.00 0.00 0.00 0.00 0.00 0.00 0.00 0.00 0.01 0.01 0.01 0.01 0.01 0.00 0.00 0.00 0.00 0.00 0.00 0.00 0.00 0.00 0.00 0.00 0.00 0.00 0.00 0.00 0.00 0.00 0.00 0.00 0.00 0.00 0.00 0.02 0.04 0.09 0.15 0.21 0.24 0.21 0.18 0.15 0.11 0.10
0.02 0.01 0.00 0.00 0.01 0.00 0.00 0.00 0.00 0.00 0.00 0.00 0.01 0.00 0.00 0.00 0.00 0.01 0.02 0.01 0.01 0.00 0.00 0.00 0.00 0.00 0.00 0.00 0.00 0.00 0.00 0.00 0.00 0.00 0.00 0.00 0.00 0.00 0.00 0.00 0.00 0.00 0.00 0.00 0.00 0.01 0.05 0.11 0.17 0.20 0.19 0.15 0.13 0.12

GFSWCAN_prec_precacc12_237.txt.gz
Total_Precipitation_Accumulation
0.03 0.02 0.03 0.03 0.04 0.04 0.04 0.03 0.03 0.03 0.03 0.03 0.04 0.04 0.04 0.05 0.08 0.18 0.22 0.14 0.41 0.62 0.20 0.03 0.02 0.07 0.10 0.22 0.45 0.24 0.43 0.48 0.52 0.58 0.36 0.19 0.07 0.02 0.02 0.00 0.01 0.01 0.04 0.06 0.08 0.17 0.13 0.00 0.00 0.01 0.03 0.01 0.00 0.00
0.04 0.04 0.04 0.03 0.03 0.03 0.03 0.03 0.03 0.03 0.05 0.05 0.04 0.03 0.02 0.03 0.09 0.22 0.31 0.10 0.24 0.80 0.46 0.03 0.01 0.01 0.03 0.07 0.28 0.41 0.35 0.15 0.19 0.25 0.18 0.11 0.09 0.04 0.02 0.01 0.00 0.01 0.00 0.00 0.02 0.05 0.02 0.02 0.02 0.01 0.00 0.00 0.00 0.00
0.03 0.03 0.03 0.03 0.04 0.03 0.03 0.03 0.04 0.04 0.03 0.02 0.02 0.02 0.02 0.04 0.09 0.24 0.38 0.25 0.46 0.65 0.30 0.07 0.04 0.01 0.02 0.03 0.11 0.53 0.25 0.07 0.09 0.04 0.14 0.13 0.10 0.05 0.05 0.02 0.02 0.00 0.00 0.01 0.02 0.00 0.00 0.01 0.04 0.05 0.07 0.02 0.00 0.00
0.03 0.03 0.03 0.03 0.03 0.03 0.03 0.04 0.03 0.03 0.02 0.02 0.02 0.03 0.03 0.06 0.09 0.16 0.30 0.25 0.49 0.59 0.31 0.03 0.04 0.05 0.03 0.03 0.05 0.18 0.21 0.16 0.17 0.17 0.31 0.25 0.10 0.03 0.03 0.03 0.02 0.01 0.01 0.03 0.06 0.01 0.00 0.00 0.00 0.00 0.02 0.07 0.05 0.02
0.03 0.03 0.02 0.03 0.03 0.03 0.03 0.03 0.03 0.02 0.02 0.02 0.02 0.02 0.04 0.09 0.10 0.13 0.15 0.17 0.23 0.48 0.31 0.04 0.02 0.04 0.05 0.05 0.08 0.10 0.19 0.23 0.28 0.41 0.40 0.20 0.06 0.04 0.03 0.04 0.01 0.00 0.01 0.03 0.03 0.01 0.00 0.00 0.00 0.01 0.03 0.04 0.08 0.05
0.02 0.03 0.03 0.03 0.02 0.03 0.03 0.03 0.03 0.02 0.02 0.01 0.01 0.01 0.02 0.09 0.12 0.16 0.15 0.06 0.15 0.33 0.40 0.09 0.02 0.01 0.01 0.03 0.07 0.13 0.18 0.27 0.34 0.34 0.21 0.10 0.05 0.08 0.11 0.03 0.00 0.00 0.00 0.00 0.00 0.00 0.00 0.00 0.00 0.00 0.04 0.03 0.05 0.07
0.03 0.02 0.02 0.02 0.03 0.03 0.03 0.03 0.02 0.01 0.01 0.01 0.01 0.01 0.01 0.06 0.16 0.23 0.17 0.11 0.18 0.39 0.34 0.06 0.02 0.00 0.00 0.00 0.02 0.05 0.11 0.19 0.23 0.23 0.13 0.06 0.04 0.08 0.08 0.02 0.00 0.00 0.00 0.00 0.00 0.00 0.00 0.00 0.00 0.00 0.00 0.02 0.06 0.08
0.02 0.02 0.02 0.03 0.03 0.03 0.03 0.03 0.01 0.01 0.01 0.00 0.00 0.01 0.00 0.01 0.05 0.10 0.07 0.12 0.25 0.41 0.24 0.11 0.03 0.03 0.00 0.01 0.03 0.04 0.10 0.12 0.14 0.09 0.05 0.02 0.04 0.10 0.05 0.00 0.00 0.00 0.00 0.00 0.00 0.00 0.00 0.00 0.00 0.00 0.00 0.00 0.00 0.02
0.02 0.02 0.03 0.03 0.03 0.03 0.02 0.02 0.01 0.01 0.00 0.00 0.00 0.00 0.00 0.02 0.02 0.02 0.01 0.03 0.09 0.31 0.36 0.14 0.05 0.07 0.02 0.04 0.05 0.06 0.10 0.13 0.08 0.07 0.01 0.03 0.04 0.07 0.01 0.00 0.00 0.00 0.00 0.00 0.00 0.00 0.00 0.00 0.01 0.00 0.00 0.00 0.02 0.01
0.03 0.03 0.03 0.03 0.03 0.02 0.02 0.02 0.01 0.01 0.01 0.00 0.00 0.00 0.02 0.02 0.00 0.01 0.03 0.06 0.16 0.29 0.29 0.12 0.06 0.15 0.08 0.09 0.11 0.08 0.11 0.05 0.10 0.04 0.04 0.08 0.02 0.00 0.00 0.00 0.00 0.00 0.00 0.00 0.00 0.00 0.00 0.00 0.00 0.00 0.00 0.01 0.02 0.03
0.03 0.03 0.03 0.03 0.03 0.03 0.03 0.03 0.03 0.02 0.00 0.00 0.00 0.00 0.01 0.00 0.01 0.04 0.04 0.06 0.11 0.11 0.07 0.02 0.02 0.04 0.04 0.09 0.14 0.14 0.13 0.08 0.09 0.02 0.06 0.06 0.01 0.01 0.00 0.00 0.00 0.00 0.00 0.00 0.00 0.00 0.01 0.01 0.00 0.01 0.02 0.02 0.02 0.05
0.02 0.03 0.03 0.03 0.03 0.04 0.03 0.03 0.03 0.02 0.01 0.00 0.01 0.02 0.02 0.03 0.06 0.09 0.06 0.04 0.04 0.05 0.05 0.03 0.04 0.03 0.04 0.02 0.08 0.12 0.12 0.11 0.09 0.06 0.08 0.03 0.03 0.00 0.00 0.00 0.00 0.00 0.00 0.00 0.00 0.01 0.01 0.01 0.02 0.07 0.07 0.09 0.08 0.06
0.02 0.03 0.03 0.04 0.04 0.03 0.04 0.03 0.04 0.02 0.01 0.01 0.09 0.09 0.05 0.03 0.05 0.04 0.06 0.12 0.04 0.04 0.05 0.05 0.05 0.04 0.04 0.05 0.12 0.14 0.13 0.06 0.04 0.06 0.04 0.03 0.03 0.00 0.00 0.00 0.00 0.00 0.01 0.05 0.04 0.04 0.05 0.04 0.04 0.16 0.24 0.32 0.34 0.28
0.03 0.02 0.03 0.02 0.03 0.03 0.03 0.02 0.01 0.02 0.02 0.05 0.07 0.04 0.03 0.01 0.00 0.00 0.02 0.07 0.05 0.01 0.02 0.03 0.05 0.04 0.05 0.14 0.11 0.07 0.04 0.03 0.04 0.03 0.06 0.04 0.02 0.01 0.06 0.09 0.11 0.09 0.05 0.12 0.22 0.12 0.10 0.11 0.08 0.16 0.32 0.39 0.43 0.46
0.03 0.03 0.02 0.01 0.02 0.02 0.01 0.01 0.01 0.03 0.03 0.03 0.06 0.04 0.00 0.00 0.00 0.00 0.01 0.02 0.02 0.01 0.01 0.05 0.06 0.05 0.06 0.07 0.07 0.08 0.04 0.02 0.07 0.14 0.06 0.02 0.03 0.04 0.12 0.11 0.21 0.33 0.24 0.21 0.38 0.39 0.34 0.34 0.34 0.41 0.43 0.40 0.40 0.41
0.03 0.03 0.00 0.02 0.01 0.01 0.02 0.02 0.02 0.03 0.05 0.02 0.02 0.01 0.00 0.00 0.01 0.03 0.03 0.03 0.01 0.01 0.05 0.10 0.15 0.16 0.09 0.06 0.07 0.07 0.09 0.15 0.12 0.04 0.04 0.03 0.03 0.04 0.07 0.09 0.11 0.20 0.27 0.30 0.29 0.44 0.51 0.55 0.62 0.70 0.70 0.58 0.50 0.43
0.06 0.04 0.01 0.02 0.02 0.03 0.03 0.03 0.05 0.12 0.04 0.02 0.00 0.00 0.00 0.01 0.02 0.04 0.05 0.05 0.02 0.03 0.07 0.08 0.09 0.08 0.07 0.07 0.13 0.14 0.14 0.07 0.03 0.03 0.04 0.05 0.10 0.06 0.03 0.02 0.08 0.08 0.17 0.27 0.29 0.38 0.52 0.67 0.62 0.52 0.48 0.50 0.42 0.41
0.05 0.01 0.03 0.04 0.06 0.06 0.04 0.03 0.04 0.03 0.04 0.01 0.01 0.00 0.01 0.01 0.01 0.04 0.02 0.01 0.02 0.06 0.08 0.10 0.10 0.10 0.08 0.06 0.07 0.07 0.04 0.03 0.03 0.05 0.05 0.05 0.04 0.05 0.03 0.03 0.07 0.14 0.16 0.27 0.35 0.41 0.45 0.37 0.28 0.39 0.41 0.41 0.39 0.43
0.05 0.04 0.04 0.07 0.14 0.18 0.06 0.03 0.03 0.03 0.00 0.00 0.00 0.00 0.01 0.02 0.04 0.01 0.01 0.01 0.03 0.04 0.09 0.08 0.05 0.03 0.02 0.01 0.02 0.01 0.03 0.05 0.03 0.04 0.05 0.05 0.05 0.05 0.06 0.05 0.09 0.24 0.24 0.26 0.27 0.24 0.27 0.22 0.21 0.24 0.27 0.18 0.13 0.18
0.04 0.02 0.02 0.03 0.12 0.20 0.06 0.02 0.04 0.03 0.01 0.01 0.01 0.01 0.01 0.02 0.08 0.03 0.00 0.01 0.02 0.02 0.03 0.04 0.05 0.04 0.03 0.02 0.04 0.04 0.06 0.06 0.05 0.04 0.03 0.06 0.12 0.13 0.05 0.18 0.23 0.22 0.26 0.25 0.28 0.33 0.36 0.32 0.31 0.16 0.06 0.04 0.05 0.07
0.04 0.01 0.01 0.03 0.09 0.12 0.06 0.03 0.04 0.02 0.02 0.01 0.01 0.01 0.04 0.05 0.06 0.05 0.01 0.00 0.02 0.02 0.01 0.00 0.02 0.04 0.07 0.05 0.05 0.06 0.06 0.05 0.05 0.09 0.08 0.06 0.05 0.03 0.03 0.04 0.05 0.04 0.06 0.11 0.17 0.31 0.26 0.10 0.02 0.00 0.00 0.01 0.01 0.02
0.07 0.04 0.11 0.08 0.11 0.10 0.07 0.01 0.02 0.03 0.02 0.01 0.01 0.02 0.05 0.05 0.03 0.01 0.00 0.00 0.02 0.02 0.01 0.01 0.01 0.02 0.02 0.04 0.04 0.06 0.07 0.06 0.06 0.04 0.04 0.03 0.02 0.01 0.03 0.02 0.01 0.01 0.01 0.02 0.04 0.15 0.12 0.02 0.00 0.00 0.00 0.00 0.00 0.00
0.13 0.12 0.16 0.14 0.13 0.06 0.02 0.00 0.02 0.01 0.02 0.02 0.01 0.02 0.04 0.02 0.01 0.00 0.01 0.00 0.01 0.01 0.01 0.01 0.01 0.01 0.02 0.03 0.04 0.03 0.02 0.05 0.06 0.06 0.06 0.06 0.05 0.05 0.03 0.02 0.02 0.01 0.02 0.02 0.02 0.08 0.09 0.02 0.00 0.01 0.01 0.01 0.00 0.01
0.18 0.20 0.14 0.10 0.09 0.06 0.01 0.01 0.02 0.02 0.03 0.03 0.03 0.04 0.03 0.02 0.00 0.00 0.00 0.00 0.01 0.00 0.00 0.00 0.00 0.00 0.00 0.01 0.02 0.03 0.04 0.05 0.05 0.06 0.07 0.07 0.07 0.07 0.04 0.05 0.02 0.01 0.02 0.03 0.02 0.04 0.07 0.05 0.03 0.01 0.01 0.01 0.01 0.01
0.26 0.12 0.07 0.06 0.04 0.05 0.02 0.01 0.01 0.02 0.02 0.01 0.02 0.02 0.01 0.01 0.00 0.00 0.00 0.00 0.00 0.00 0.00 0.00 0.00 0.00 0.00 0.01 0.01 0.03 0.06 0.08 0.08 0.08 0.10 0.09 0.08 0.08 0.08 0.09 0.07 0.04 0.04 0.04 0.05 0.05 0.06 0.08 0.09 0.05 0.02 0.00 0.01 0.00
0.13 0.04 0.01 0.02 0.03 0.02 0.01 0.01 0.01 0.01 0.01 0.01 0.01 0.00 0.00 0.00 0.00 0.00 0.00 0.00 0.00 0.00 0.00 0.00 0.00 0.00 0.00 0.00 0.00 0.01 0.02 0.05 0.07 0.09 0.14 0.15 0.15 0.16 0.17 0.15 0.14 0.10 0.07 0.07 0.06 0.06 0.06 0.05 0.06 0.08 0.06 0.03 0.01 0.00
0.05 0.04 0.02 0.01 0.02 0.01 0.01 0.01 0.00 0.00 0.01 0.01 0.00 0.00 0.00 0.00 0.00 0.00 0.01 0.00 0.00 0.00 0.00 0.00 0.00 0.00 0.01 0.01 0.01 0.01 0.00 0.01 0.02 0.07 0.12 0.15 0.17 0.18 0.20 0.21 0.18 0.16 0.14 0.11 0.08 0.05 0.05 0.05 0.04 0.03 0.05 0.05 0.04 0.02
0.02 0.01 0.01 0.01 0.01 0.00 0.00 0.00 0.00 0.00 0.00 0.00 0.00 0.00 0.00 0.00 0.00 0.01 0.00 0.00 0.00 0.00 0.00 0.00 0.00 0.00 0.00 0.00 0.00 0.00 0.00 0.00 0.00 0.01 0.02 0.03 0.06 0.10 0.13 0.16 0.15 0.15 0.18 0.19 0.17 0.12 0.06 0.04 0.04 0.02 0.02 0.02 0.02 0.02
0.01 0.00 0.01 0.02 0.03 0.02 0.01 0.00 0.00 0.00 0.00 0.00 0.00 0.00 0.00 0.01 0.02 0.01 0.01 0.00 0.00 0.00 0.00 0.00 0.00 0.00 0.00 0.00 0.00 0.00 0.00 0.00 0.00 0.00 0.00 0.00 0.00 0.00 0.02 0.04 0.06 0.08 0.11 0.15 0.20 0.19 0.14 0.09 0.05 0.03 0.03 0.02 0.01 0.01
0.02 0.01 0.01 0.01 0.02 0.02 0.01 0.00 0.00 0.00 0.00 0.00 0.00 0.00 0.01 0.02 0.03 0.02 0.01 0.01 0.00 0.00 0.00 0.00 0.00 0.00 0.00 0.00 0.00 0.00 0.00 0.00 0.00 0.00 0.00 0.00 0.00 0.00 0.00 0.00 0.01 0.02 0.05 0.09 0.15 0.22 0.26 0.25 0.22 0.17 0.10 0.04 0.03 0.03
0.01 0.01 0.01 0.01 0.02 0.02 0.01 0.00 0.00 0.00 0.00 0.00 0.00 0.00 0.01 0.02 0.03 0.03 0.02 0.02 0.01 0.00 0.00 0.00 0.00 0.00 0.00 0.00 0.00 0.00 0.00 0.00 0.00 0.00 0.00 0.00 0.00 0.00 0.00 0.00 0.00 0.00 0.01 0.03 0.08 0.16 0.27 0.30 0.24 0.19 0.12 0.06 0.03 0.02
0.02 0.02 0.01 0.01 0.02 0.02 0.01 0.00 0.00 0.00 0.00 0.00 0.00 0.01 0.01 0.01 0.01 0.02 0.01 0.02 0.01 0.01 0.00 0.00 0.00 0.00 0.00 0.00 0.00 0.00 0.00 0.00 0.00 0.00 0.00 0.00 0.00 0.00 0.00 0.00 0.00 0.00 0.00 0.00 0.03 0.07 0.14 0.23 0.27 0.25 0.23 0.18 0.13 0.10
0.02 0.02 0.01 0.01 0.02 0.02 0.01 0.00 0.00 0.00 0.00 0.00 0.01 0.00 0.01 0.00 0.01 0.02 0.02 0.02 0.02 0.01 0.00 0.00 0.00 0.00 0.00 0.00 0.00 0.00 0.00 0.00 0.00 0.00 0.00 0.00 0.00 0.00 0.00 0.00 0.00 0.00 0.00 0.00 0.00 0.01 0.05 0.11 0.18 0.24 0.24 0.24 0.21 0.17

GFSWCAN_prec_precacc12_243.txt.gz
Total_Precipitation_Accumulation
0.02 0.02 0.02 0.03 0.03 0.03 0.03 0.03 0.02 0.01 0.02 0.02 0.02 0.02 0.04 0.05 0.06 0.12 0.07 0.11 0.26 0.31 0.11 0.02 0.02 0.04 0.05 0.12 0.22 0.09 0.32 0.14 0.18 0.36 0.25 0.16 0.10 0.06 0.05 0.01 0.02 0.06 0.10 0.08 0.06 0.14 0.08 0.00 0.00 0.00 0.00 0.00 0.00 0.00
0.03 0.03 0.02 0.02 0.02 0.01 0.02 0.03 0.02 0.02 0.02 0.03 0.03 0.03 0.03 0.04 0.03 0.08 0.08 0.03 0.15 0.39 0.24 0.02 0.01 0.01 0.01 0.03 0.12 0.21 0.35 0.14 0.40 0.48 0.36 0.38 0.31 0.20 0.13 0.14 0.06 0.09 0.06 0.06 0.03 0.02 0.00 0.01 0.00 0.00 0.00 0.00 0.00 0.00
0.02 0.02 0.02 0.02 0.03 0.02 0.02 0.02 0.02 0.02 0.02 0.03 0.03 0.03 0.04 0.03 0.04 0.07 0.08 0.05 0.22 0.39 0.20 0.03 0.00 0.00 0.00 0.00 0.04 0.52 0.21 0.08 0.11 0.09 0.27 0.27 0.19 0.09 0.09 0.06 0.05 0.02 0.03 0.16 0.15 0.03 0.01 0.01 0.00 0.00 0.00 0.00 0.00 0.00
0.02 0.02 0.02 0.02 0.01 0.01 0.02 0.02 0.02 0.02 0.02 0.02 0.02 0.03 0.03 0.03 0.04 0.07 0.10 0.08 0.35 0.57 0.32 0.02 0.00 0.00 0.00 0.02 0.03 0.11 0.15 0.20 0.28 0.25 0.53 0.44 0.21 0.07 0.05 0.05 0.04 0.03 0.03 0.04 0.05 0.01 0.02 0.01 0.00 0.00 0.00 0.00 0.00 0.00
0.01 0.02 0.02 0.02 0.02 0.02 0.02 0.02 0.02 0.01 0.02 0.03 0.03 0.04 0.04 0.03 0.03 0.05 0.06 0.04 0.11 0.52 0.33 0.04 0.01 0.00 0.01 0.03 0.06 0.12 0.22 0.30 0.38 0.51 0.47 0.22 0.06 0.07 0.04 0.05 0.02 0.01 0.02 0.06 0.02 0.01 0.03 0.00 0.00 0.00 0.00 0.00 0.00 0.00
0.03 0.03 0.03 0.02 0.01 0.01 0.02 0.03 0.02 0.02 0.02 0.02 0.02 0.02 0.02 0.02 0.02 0.11 0.09 0.06 0.19 0.49 0.78 0.19 0.02 0.01 0.01 0.01 0.02 0.08 0.16 0.30 0.41 0.45 0.30 0.12 0.05 0.16 0.20 0.05 0.00 0.00 0.00 0.00 0.01 0.00 0.00 0.00 0.00 0.00 0.00 0.00 0.00 0.00
0.02 0.02 0.02 0.02 0.01 0.02 0.03 0.03 0.02 0.01 0.01 0.01 0.02 0.02 0.02 0.02 0.05 0.12 0.11 0.18 0.31 0.61 0.66 0.17 0.05 0.03 0.03 0.01 0.01 0.04 0.09 0.17 0.23 0.27 0.17 0.08 0.06 0.17 0.20 0.04 0.00 0.00 0.00 0.00 0.00 0.00 0.00 0.00 0.00 0.00 0.00 0.00 0.00 0.00
0.02 0.02 0.02 0.02 0.02 0.02 0.03 0.02 0.01 0.01 0.01 0.01 0.01 0.01 0.02 0.03 0.05 0.04 0.02 0.09 0.26 0.39 0.34 0.17 0.06 0.10 0.02 0.01 0.03 0.04 0.09 0.11 0.13 0.09 0.06 0.04 0.08 0.20 0.14 0.00 0.00 0.02 0.02 0.01 0.00 0.00 0.00 0.00 0.00 0.00 0.00 0.00 0.00 0.00
0.02 0.02 0.02 0.01 0.01 0.02 0.02 0.02 0.01 0.01 0.01 0.01 0.01 0.00 0.01 0.03 0.04 0.03 0.00 0.04 0.12 0.24 0.37 0.17 0.07 0.15 0.05 0.06 0.05 0.06 0.07 0.09 0.07 0.07 0.02 0.06 0.06 0.08 0.01 0.02 0.06 0.03 0.01 0.00 0.00 0.00 0.00 0.00 0.00 0.00 0.00 0.00 0.00 0.00
0.02 0.02 0.02 0.01 0.01 0.02 0.02 0.02 0.02 0.01 0.01 0.00 0.00 0.02 0.04 0.05 0.01 0.02 0.06 0.09 0.17 0.24 0.26 0.08 0.03 0.11 0.14 0.22 0.29 0.24 0.22 0.08 0.11 0.06 0.03 0.05 0.01 0.00 0.02 0.02 0.02 0.01 0.00 0.00 0.00 0.00 0.00 0.00 0.00 0.00 0.00 0.00 0.00 0.00
0.02 0.02 0.01 0.01 0.01 0.02 0.02 0.03 0.02 0.02 0.00 0.01 0.05 0.04 0.02 0.01 0.01 0.08 0.10 0.09 0.12 0.15 0.07 0.02 0.01 0.04 0.07 0.11 0.16 0.15 0.17 0.13 0.12 0.07 0.12 0.11 0.09 0.16 0.12 0.06 0.00 0.00 0.00 0.00 0.00 0.00 0.00 0.00 0.00 0.00 0.00 0.00 0.00 0.01
0.01 0.01 0.02 0.02 0.02 0.03 0.02 0.02 0.02 0.04 0.04 0.02 0.02 0.02 0.01 0.02 0.06 0.07 0.07 0.05 0.06 0.07 0.12 0.08 0.10 0.09 0.15 0.11 0.14 0.12 0.11 0.10 0.09 0.11 0.14 0.09 0.14 0.01 0.00 0.00 0.00 0.00 0.00 0.00 0.00 0.00 0.00 0.00 0.00 0.01 0.01 0.00 0.00 0.00
0.01 0.02 0.02 0.02 0.02 0.02 0.03 0.02 0.02 0.02 0.01 0.02 0.09 0.06 0.05 0.04 0.07 0.07 0.03 0.04 0.07 0.08 0.14 0.15 0.14 0.11 0.11 0.09 0.10 0.11 0.11 0.07 0.09 0.10 0.07 0.17 0.12 0.00 0.00 0.00 0.00 0.00 0.00 0.02 0.02 0.01 0.01 0.01 0.01 0.02 0.03 0.03 0.04 0.06
0.01 0.01 0.02 0.01 0.02 0.02 0.01 0.02 0.01 0.02 0.02 0.05 0.08 0.05 0.03 0.02 0.01 0.00 0.02 0.09 0.12 0.09 0.11 0.17 0.15 0.11 0.12 0.15 0.11 0.09 0.07 0.08 0.07 0.06 0.16 0.16 0.01 0.00 0.00 0.01 0.00 0.00 0.00 0.03 0.03 0.01 0.01 0.02 0.01 0.01 0.04 0.08 0.13 0.19
0.01 0.02 0.01 0.02 0.04 0.03 0.03 0.03 0.01 0.04 0.05 0.06 0.04 0.04 0.00 0.00 0.00 0.01 0.03 0.04 0.08 0.08 0.06 0.07 0.06 0.07 0.10 0.10 0.09 0.12 0.10 0.06 0.09 0.16 0.10 0.01 0.00 0.01 0.01 0.01 0.00 0.01 0.01 0.03 0.04 0.06 0.08 0.11 0.15 0.17 0.19 0.22 0.22 0.25
0.01 0.01 0.00 0.02 0.02 0.01 0.03 0.05 0.07 0.10 0.10 0.03 0.02 0.01 0.00 0.01 0.02 0.04 0.04 0.04 0.04 0.03 0.02 0.06 0.12 0.18 0.12 0.09 0.10 0.09 0.10 0.12 0.14 0.02 0.01 0.01 0.01 0.01 0.02 0.01 0.01 0.03 0.03 0.05 0.05 0.09 0.12 0.16 0.24 0.40 0.51 0.48 0.38 0.32
0.03 0.03 0.01 0.02 0.03 0.03 0.04 0.08 0.13 0.22 0.07 0.02 0.01 0.00 0.00 0.01 0.02 0.05 0.07 0.09 0.09 0.08 0.09 0.14 0.13 0.11 0.12 0.13 0.14 0.12 0.14 0.10 0.04 0.00 0.00 0.01 0.02 0.03 0.02 0.01 0.02 0.04 0.06 0.08 0.05 0.08 0.16 0.26 0.31 0.31 0.33 0.37 0.30 0.33
0.03 0.01 0.03 0.04 0.05 0.07 0.06 0.11 0.13 0.09 0.08 0.01 0.01 0.01 0.02 0.03 0.03 0.02 0.03 0.05 0.07 0.10 0.10 0.13 0.12 0.13 0.14 0.10 0.13 0.03 0.01 0.01 0.00 0.00 0.00 0.01 0.03 0.03 0.02 0.02 0.03 0.08 0.10 0.15 0.18 0.20 0.26 0.22 0.20 0.30 0.37 0.39 0.35 0.41
0.03 0.03 0.04 0.06 0.13 0.25 0.15 0.10 0.10 0.08 0.01 0.00 0.00 0.01 0.02 0.04 0.04 0.04 0.05 0.06 0.07 0.07 0.10 0.09 0.07 0.04 0.07 0.04 0.03 0.01 0.00 0.01 0.01 0.00 0.00 0.03 0.05 0.03 0.02 0.01 0.04 0.11 0.11 0.13 0.18 0.19 0.24 0.23 0.22 0.22 0.26 0.22 0.20 0.28
0.01 0.01 0.02 0.03 0.15 0.36 0.16 0.05 0.10 0.07 0.02 0.01 0.01 0.02 0.03 0.05 0.05 0.04 0.03 0.03 0.06 0.05 0.05 0.05 0.03 0.02 0.02 0.01 0.02 0.02 0.01 0.01 0.01 0.01 0.00 0.02 0.02 0.01 0.01 0.01 0.02 0.04 0.07 0.09 0.14 0.17 0.20 0.16 0.13 0.09 0.06 0.12 0.16 0.20
0.04 0.01 0.03 0.07 0.17 0.24 0.16 0.08 0.09 0.03 0.02 0.02 0.01 0.03 0.07 0.07 0.06 0.04 0.03 0.01 0.05 0.04 0.02 0.02 0.01 0.01 0.01 0.00 0.01 0.01 0.01 0.01 0.01 0.02 0.02 0.02 0.00 0.01 0.01 0.01 0.01 0.01 0.01 0.04 0.10 0.16 0.09 0.04 0.01 0.00 0.01 0.02 0.07 0.13
0.07 0.06 0.16 0.15 0.27 0.23 0.16 0.02 0.03 0.06 0.07 0.04 0.04 0.06 0.09 0.10 0.09 0.07 0.04 0.05 0.04 0.02 0.01 0.01 0.01 0.00 0.00 0.01 0.01 0.00 0.01 0.01 0.01 0.01 0.01 0.02 0.02 0.02 0.04 0.04 0.04 0.01 0.01 0.03 0.06 0.16 0.07 0.01 0.01 0.00 0.01 0.01 0.01 0.02
0.15 0.16 0.23 0.19 0.25 0.17 0.06 0.02 0.05 0.03 0.05 0.03 0.03 0.06 0.07 0.07 0.07 0.04 0.07 0.03 0.02 0.00 0.00 0.00 0.00 0.00 0.01 0.00 0.00 0.01 0.00 0.01 0.02 0.02 0.01 0.02 0.03 0.05 0.03 0.08 0.04 0.01 0.02 0.03 0.05 0.11 0.11 0.03 0.01 0.01 0.01 0.00 0.00 0.01
0.24 0.33 0.26 0.18 0.14 0.10 0.04 0.03 0.05 0.06 0.06 0.06 0.07 0.08 0.08 0.10 0.03 0.02 0.02 0.01 0.01 0.00 0.00 0.00 0.00 0.00 0.00 0.00 0.02 0.01 0.01 0.01 0.02 0.02 0.01 0.02 0.02 0.03 0.05 0.10 0.03 0.02 0.03 0.05 0.05 0.07 0.11 0.09 0.04 0.01 0.01 0.01 0.01 0.01
0.48 0.23 0.13 0.13 0.10 0.11 0.07 0.03 0.03 0.05 0.07 0.05 0.08 0.11 0.08 0.02 0.03 0.03 0.01 0.02 0.00 0.00 0.00 0.00 0.00 0.00 0.03 0.03 0.01 0.01 0.00 0.01 0.02 0.03 0.02 0.02 0.03 0.03 0.04 0.06 0.07 0.03 0.02 0.04 0.06 0.08 0.09 0.12 0.13 0.08 0.03 0.01 0.01 0.01
0.28 0.10 0.07 0.05 0.06 0.05 0.06 0.05 0.03 0.02 0.04 0.05 0.09 0.09 0.06 0.06 0.05 0.02 0.03 0.02 0.01 0.01 0.01 0.01 0.01 0.01 0.01 0.01 0.02 0.01 0.00 0.01 0.02 0.02 0.02 0.02 0.03 0.06 0.07 0.06 0.06 0.05 0.03 0.06 0.07 0.08 0.09 0.09 0.10 0.12 0.11 0.04 0.01 0.01
0.15 0.09 0.03 0.02 0.04 0.05 0.05 0.06 0.06 0.06 0.07 0.06 0.06 0.03 0.03 0.03 0.02 0.03 0.01 0.01 0.01 0.01 0.00 0.01 0.01 0.02 0.02 0.00 0.00 0.00 0.00 0.01 0.01 0.01 0.02 0.02 0.02 0.03 0.06 0.08 0.09 0.08 0.08 0.08 0.08 0.07 0.07 0.07 0.08 0.09 0.12 0.10 0.06 0.03
0.06 0.05 0.03 0.03 0.04 0.04 0.05 0.04 0.04 0.02 0.04 0.04 0.06 0.05 0.03 0.02 0.03 0.02 0.01 0.02 0.00 0.00 0.00 0.00 0.00 0.00 0.00 0.00 0.00 0.00 0.00 0.00 0.01 0.00 0.01 0.05 0.02 0.01 0.02 0.04 0.06 0.07 0.09 0.12 0.13 0.10 0.08 0.06 0.06 0.06 0.09 0.10 0.08 0.05
0.08 0.05 0.06 0.08 0.07 0.07 0.07 0.06 0.05 0.03 0.01 0.00 0.02 0.02 0.01 0.01 0.02 0.02 0.01 0.00 0.00 0.00 0.00 0.00 0.00 0.00 0.00 0.00 0.00 0.00 0.00 0.00 0.00 0.00 0.00 0.03 0.01 0.00 0.00 0.00 0.01 0.03 0.05 0.07 0.10 0.12 0.11 0.09 0.07 0.07 0.07 0.09 0.08 0.05
0.04 0.07 0.12 0.09 0.06 0.05 0.04 0.01 0.03 0.00 0.00 0.00 0.00 0.00 0.00 0.01 0.02 0.03 0.01 0.01 0.01 0.01 0.01 0.00 0.01 0.01 0.00 0.00 0.00 0.00 0.00 0.00 0.00 0.00 0.00 0.00 0.00 0.00 0.00 0.00 0.00 0.00 0.02 0.04 0.06 0.09 0.11 0.14 0.15 0.15 0.13 0.10 0.07 0.05
0.05 0.08 0.12 0.08 0.04 0.03 0.02 0.01 0.01 0.00 0.00 0.00 0.01 0.01 0.01 0.02 0.03 0.02 0.03 0.04 0.03 0.01 0.00 0.00 0.00 0.00 0.00 0.00 0.01 0.01 0.01 0.00 0.00 0.00 0.00 0.00 0.00 0.00 0.00 0.00 0.00 0.00 0.00 0.00 0.02 0.06 0.12 0.15 0.16 0.16 0.16 0.12 0.07 0.04
0.06 0.08 0.04 0.02 0.03 0.03 0.02 0.03 0.02 0.01 0.00 0.01 0.01 0.01 0.00 0.01 0.01 0.02 0.03 0.03 0.01 0.01 0.00 0.00 0.00 0.01 0.00 0.00 0.00 0.00 0.00 0.00 0.00 0.00 0.00 0.00 0.00 0.00 0.00 0.00 0.00 0.00 0.00 0.00 0.01 0.02 0.04 0.10 0.14 0.16 0.18 0.20 0.17 0.10
0.05 0.06 0.02 0.02 0.02 0.03 0.02 0.03 0.02 0.01 0.01 0.02 0.01 0.00 0.01 0.02 0.03 0.03 0.01 0.02 0.03 0.03 0.01 0.02 0.01 0.00 0.00 0.00 0.00 0.00 0.00 0.00 0.00 0.00 0.00 0.00 0.00 0.00 0.00 0.00 0.00 0.00 0.00 0.00 0.00 0.01 0.01 0.03 0.09 0.17 0.20 0.23 0.27 0.27

GFSWCAN_prec_precacc12_246.txt.gz
Total_Precipitation_Accumulation
0.02 0.02 0.02 0.03 0.03 0.02 0.02 0.02 0.02 0.02 0.02 0.02 0.02 0.03 0.03 0.04 0.05 0.10 0.05 0.09 0.22 0.25 0.06 0.00 0.01 0.02 0.03 0.08 0.15 0.05 0.24 0.10 0.13 0.25 0.20 0.16 0.13 0.11 0.06 0.02 0.02 0.05 0.09 0.08 0.09 0.14 0.06 0.00 0.00 0.00 0.00 0.00 0.00 0.00
0.03 0.03 0.02 0.02 0.02 0.02 0.02 0.02 0.02 0.02 0.02 0.02 0.03 0.03 0.04 0.03 0.03 0.06 0.05 0.02 0.10 0.23 0.08 0.00 0.00 0.01 0.01 0.02 0.10 0.16 0.28 0.10 0.34 0.41 0.36 0.42 0.32 0.23 0.14 0.16 0.09 0.14 0.12 0.11 0.05 0.03 0.01 0.02 0.00 0.00 0.00 0.00 0.00 0.00
0.02 0.02 0.02 0.02 0.02 0.02 0.01 0.01 0.01 0.02 0.02 0.02 0.03 0.03 0.03 0.04 0.05 0.06 0.05 0.03 0.13 0.13 0.06 0.01 0.00 0.00 0.00 0.00 0.02 0.35 0.11 0.04 0.05 0.09 0.28 0.26 0.18 0.09 0.09 0.06 0.06 0.04 0.08 0.26 0.21 0.08 0.09 0.07 0.02 0.00 0.00 0.00 0.00 0.00
0.02 0.02 0.02 0.02 0.01 0.02 0.02 0.02 0.02 0.02 0.02 0.01 0.02 0.02 0.03 0.04 0.04 0.06 0.06 0.04 0.16 0.30 0.21 0.01 0.00 0.00 0.00 0.02 0.02 0.05 0.03 0.10 0.19 0.23 0.62 0.47 0.23 0.09 0.06 0.05 0.04 0.03 0.03 0.04 0.05 0.01 0.02 0.03 0.03 0.00 0.00 0.00 0.00 0.00
0.02 0.02 0.02 0.03 0.03 0.03 0.02 0.01 0.01 0.02 0.02 0.02 0.03 0.03 0.04 0.05 0.05 0.05 0.03 0.01 0.04 0.29 0.20 0.04 0.01 0.00 0.01 0.02 0.05 0.09 0.10 0.14 0.28 0.56 0.50 0.20 0.05 0.07 0.04 0.04 0.02 0.01 0.02 0.06 0.02 0.01 0.03 0.01 0.01 0.00 0.00 0.00 0.00 0.00
0.03 0.03 0.02 0.02 0.02 0.01 0.01 0.01 0.02 0.02 0.02 0.02 0.02 0.02 0.02 0.02 0.03 0.08 0.05 0.05 0.15 0.36 0.72 0.20 0.02 0.01 0.01 0.01 0.01 0.03 0.06 0.13 0.28 0.44 0.30 0.11 0.05 0.16 0.17 0.03 0.00 0.00 0.00 0.00 0.01 0.00 0.00 0.00 0.00 0.00 0.00 0.00 0.00 0.00
0.01 0.01 0.02 0.02 0.02 0.02 0.02 0.02 0.02 0.02 0.01 0.01 0.01 0.02 0.02 0.03 0.06 0.08 0.04 0.12 0.23 0.58 0.68 0.19 0.05 0.03 0.03 0.01 0.01 0.01 0.01 0.05 0.12 0.22 0.16 0.07 0.05 0.16 0.18 0.03 0.00 0.00 0.00 0.00 0.00 0.00 0.00 0.00 0.00 0.00 0.00 0.00 0.00 0.00
0.01 0.01 0.01 0.01 0.01 0.02 0.01 0.02 0.01 0.01 0.01 0.01 0.01 0.02 0.03 0.05 0.06 0.04 0.00 0.01 0.13 0.35 0.31 0.17 0.06 0.10 0.02 0.01 0.01 0.02 0.06 0.07 0.10 0.09 0.06 0.04 0.08 0.20 0.14 0.00 0.00 0.02 0.02 0.01 0.00 0.00 0.00 0.00 0.00 0.00 0.00 0.00 0.00 0.00
0.01 0.01 0.01 0.01 0.01 0.01 0.01 0.02 0.01 0.01 0.01 0.00 0.01 0.01 0.02 0.03 0.03 0.03 0.01 0.02 0.10 0.18 0.28 0.16 0.06 0.13 0.06 0.06 0.06 0.11 0.08 0.09 0.08 0.07 0.02 0.06 0.06 0.09 0.01 0.03 0.07 0.07 0.04 0.01 0.00 0.00 0.00 0.00 0.00 0.00 0.00 0.00 0.00 0.00
0.01 0.01 0.01 0.01 0.01 0.01 0.01 0.01 0.01 0.01 0.00 0.00 0.00 0.02 0.04 0.04 0.01 0.02 0.06 0.09 0.21 0.26 0.25 0.07 0.02 0.09 0.13 0.20 0.31 0.38 0.37 0.16 0.15 0.06 0.03 0.04 0.01 0.01 0.03 0.03 0.03 0.02 0.02 0.01 0.00 0.00 0.00 0.00 0.00 0.00 0.00 0.00 0.00 0.00
0.01 0.01 0.01 0.01 0.01 0.01 0.01 0.02 0.02 0.01 0.00 0.01 0.07 0.08 0.02 0.02 0.02 0.08 0.10 0.10 0.10 0.15 0.08 0.02 0.01 0.03 0.07 0.10 0.13 0.13 0.14 0.13 0.12 0.07 0.11 0.12 0.12 0.26 0.24 0.16 0.11 0.04 0.00 0.00 0.00 0.00 0.00 0.00 0.00 0.00 0.00 0.00 0.00 0.00
0.00 0.00 0.01 0.02 0.02 0.01 0.01 0.02 0.02 0.03 0.04 0.07 0.06 0.03 0.01 0.01 0.05 0.06 0.06 0.05 0.06 0.06 0.11 0.07 0.10 0.09 0.15 0.14 0.18 0.15 0.12 0.09 0.08 0.12 0.14 0.09 0.16 0.02 0.00 0.00 0.00 0.00 0.00 0.00 0.00 0.00 0.00 0.00 0.00 0.01 0.01 0.00 0.00 0.00
0.01 0.01 0.01 0.01 0.02 0.01 0.02 0.01 0.01 0.01 0.01 0.02 0.06 0.04 0.04 0.03 0.07 0.06 0.02 0.03 0.05 0.07 0.14 0.16 0.16 0.13 0.12 0.10 0.19 0.19 0.15 0.07 0.09 0.09 0.07 0.18 0.12 0.00 0.00 0.00 0.00 0.00 0.00 0.00 0.00 0.00 0.01 0.01 0.01 0.02 0.03 0.01 0.01 0.01
0.01 0.01 0.00 0.00 0.01 0.02 0.03 0.02 0.01 0.01 0.02 0.04 0.08 0.06 0.03 0.02 0.01 0.00 0.01 0.07 0.12 0.09 0.10 0.18 0.23 0.23 0.16 0.16 0.10 0.07 0.06 0.08 0.07 0.05 0.15 0.16 0.01 0.00 0.00 0.00 0.00 0.00 0.00 0.00 0.00 0.00 0.01 0.02 0.01 0.01 0.03 0.04 0.05 0.04
0.03 0.01 0.00 0.01 0.03 0.04 0.03 0.03 0.02 0.02 0.04 0.05 0.04 0.03 0.00 0.00 0.00 0.01 0.03 0.04 0.08 0.09 0.06 0.06 0.05 0.06 0.08 0.09 0.07 0.09 0.10 0.06 0.07 0.12 0.09 0.01 0.00 0.00 0.00 0.00 0.00 0.00 0.01 0.02 0.02 0.02 0.05 0.08 0.10 0.11 0.12 0.13 0.11 0.09
0.03 0.02 0.00 0.02 0.02 0.01 0.03 0.05 0.09 0.12 0.10 0.02 0.01 0.00 0.00 0.01 0.02 0.03 0.03 0.03 0.04 0.03 0.02 0.03 0.07 0.11 0.09 0.08 0.08 0.07 0.08 0.10 0.12 0.02 0.00 0.00 0.00 0.00 0.00 0.00 0.01 0.01 0.02 0.03 0.02 0.03 0.06 0.11 0.14 0.20 0.25 0.25 0.20 0.14
0.06 0.04 0.01 0.01 0.01 0.03 0.04 0.07 0.14 0.25 0.07 0.03 0.01 0.00 0.00 0.01 0.02 0.04 0.07 0.08 0.09 0.08 0.08 0.15 0.13 0.09 0.11 0.12 0.11 0.10 0.11 0.09 0.04 0.01 0.00 0.00 0.01 0.02 0.01 0.00 0.01 0.01 0.02 0.03 0.02 0.03 0.07 0.12 0.19 0.18 0.16 0.16 0.11 0.12
0.07 0.01 0.01 0.01 0.02 0.06 0.06 0.11 0.13 0.08 0.08 0.01 0.01 0.01 0.02 0.03 0.03 0.02 0.03 0.04 0.06 0.09 0.11 0.17 0.16 0.12 0.13 0.12 0.15 0.04 0.02 0.02 0.01 0.00 0.00 0.00 0.03 0.03 0.01 0.01 0.02 0.03 0.03 0.05 0.10 0.12 0.14 0.12 0.12 0.18 0.23 0.24 0.20 0.24
0.08 0.04 0.01 0.01 0.07 0.22 0.14 0.10 0.10 0.07 0.01 0.00 0.00 0.01 0.02 0.04 0.04 0.04 0.05 0.06 0.07 0.07 0.13 0.13 0.08 0.04 0.07 0.04 0.02 0.01 0.00 0.01 0.00 0.00 0.00 0.02 0.04 0.02 0.01 0.00 0.02 0.04 0.02 0.06 0.10 0.13 0.17 0.18 0.17 0.16 0.19 0.18 0.16 0.22
0.09 0.07 0.01 0.00 0.11 0.33 0.15 0.05 0.10 0.07 0.01 0.01 0.01 0.02 0.03 0.04 0.05 0.04 0.03 0.03 0.07 0.09 0.12 0.10 0.05 0.02 0.02 0.01 0.01 0.01 0.01 0.00 0.00 0.00 0.00 0.00 0.00 0.00 0.00 0.01 0.01 0.02 0.02 0.03 0.07 0.07 0.10 0.06 0.03 0.02 0.04 0.12 0.16 0.20
0.03 0.01 0.03 0.06 0.16 0.24 0.15 0.07 0.08 0.03 0.02 0.02 0.01 0.03 0.07 0.06 0.06 0.04 0.03 0.02 0.08 0.10 0.06 0.02 0.01 0.00 0.00 0.00 0.00 0.00 0.00 0.00 0.00 0.01 0.01 0.01 0.00 0.00 0.01 0.01 0.01 0.02 0.01 0.02 0.05 0.09 0.04 0.02 0.01 0.00 0.01 0.02 0.07 0.14
0.04 0.04 0.13 0.14 0.26 0.21 0.16 0.02 0.03 0.06 0.08 0.04 0.04 0.06 0.08 0.08 0.07 0.07 0.06 0.11 0.08 0.02 0.01 0.01 0.00 0.00 0.00 0.01 0.00 0.00 0.00 0.00 0.00 0.01 0.01 0.00 0.01 0.02 0.04 0.04 0.04 0.01 0.01 0.02 0.04 0.10 0.05 0.01 0.01 0.01 0.01 0.01 0.01 0.02
0.07 0.10 0.20 0.18 0.22 0.17 0.07 0.02 0.04 0.03 0.05 0.03 0.03 0.06 0.07 0.07 0.07 0.06 0.11 0.09 0.04 0.01 0.00 0.00 0.00 0.00 0.01 0.00 0.00 0.00 0.00 0.00 0.02 0.02 0.00 0.00 0.01 0.04 0.04 0.09 0.04 0.01 0.02 0.02 0.05 0.08 0.08 0.03 0.01 0.01 0.01 0.01 0.01 0.01
0.16 0.29 0.25 0.18 0.11 0.09 0.04 0.04 0.05 0.06 0.07 0.06 0.06 0.07 0.07 0.10 0.05 0.04 0.03 0.02 0.01 0.00 0.00 0.00 0.00 0.00 0.00 0.00 0.02 0.01 0.00 0.00 0.02 0.02 0.00 0.00 0.01 0.02 0.05 0.10 0.02 0.01 0.03 0.05 0.05 0.06 0.08 0.06 0.03 0.01 0.01 0.01 0.01 0.01
0.44 0.24 0.13 0.13 0.10 0.10 0.06 0.03 0.03 0.05 0.06 0.05 0.09 0.13 0.09 0.04 0.05 0.04 0.02 0.02 0.00 0.00 0.00 0.00 0.00 0.00 0.04 0.03 0.01 0.01 0.00 0.01 0.02 0.03 0.01 0.01 0.01 0.02 0.02 0.04 0.05 0.03 0.02 0.04 0.05 0.07 0.08 0.10 0.10 0.06 0.02 0.01 0.01 0.02
0.28 0.10 0.08 0.05 0.05 0.05 0.07 0.05 0.03 0.02 0.04 0.06 0.09 0.10 0.09 0.12 0.11 0.07 0.05 0.02 0.01 0.01 0.01 0.01 0.01 0.01 0.02 0.02 0.02 0.01 0.00 0.00 0.02 0.02 0.01 0.01 0.01 0.02 0.02 0.03 0.03 0.03 0.02 0.05 0.06 0.06 0.08 0.08 0.09 0.11 0.10 0.03 0.01 0.02
0.17 0.09 0.03 0.02 0.04 0.05 0.06 0.06 0.07 0.08 0.09 0.07 0.06 0.04 0.05 0.07 0.08 0.05 0.02 0.02 0.01 0.01 0.00 0.01 0.01 0.02 0.01 0.00 0.00 0.00 0.00 0.00 0.00 0.01 0.01 0.01 0.00 0.00 0.01 0.03 0.04 0.04 0.04 0.06 0.07 0.06 0.06 0.07 0.08 0.09 0.11 0.09 0.06 0.04
0.08 0.04 0.03 0.02 0.03 0.04 0.05 0.06 0.10 0.09 0.08 0.07 0.09 0.09 0.07 0.03 0.03 0.02 0.01 0.02 0.00 0.00 0.00 0.00 0.00 0.00 0.00 0.00 0.00 0.00 0.00 0.00 0.00 0.01 0.02 0.06 0.02 0.00 0.00 0.00 0.01 0.02 0.05 0.07 0.09 0.08 0.07 0.05 0.05 0.07 0.09 0.10 0.09 0.05
0.09 0.05 0.06 0.07 0.06 0.06 0.07 0.09 0.09 0.05 0.03 0.01 0.03 0.04 0.03 0.02 0.02 0.02 0.01 0.00 0.00 0.00 0.00 0.00 0.00 0.00 0.00 0.00 0.00 0.00 0.00 0.00 0.00 0.00 0.00 0.03 0.02 0.00 0.00 0.00 0.00 0.00 0.01 0.03 0.06 0.08 0.08 0.07 0.06 0.07 0.08 0.10 0.09 0.06
0.04 0.07 0.11 0.09 0.08 0.08 0.07 0.03 0.05 0.03 0.00 0.00 0.00 0.00 0.00 0.01 0.02 0.03 0.01 0.00 0.01 0.01 0.01 0.00 0.01 0.01 0.00 0.00 0.00 0.00 0.00 0.00 0.00 0.00 0.00 0.00 0.00 0.00 0.00 0.00 0.00 0.00 0.00 0.01 0.02 0.04 0.06 0.09 0.10 0.10 0.11 0.10 0.08 0.06
0.05 0.08 0.12 0.10 0.09 0.08 0.05 0.02 0.01 0.00 0.00 0.00 0.01 0.01 0.01 0.01 0.02 0.02 0.03 0.03 0.02 0.01 0.00 0.00 0.00 0.00 0.00 0.00 0.01 0.01 0.01 0.00 0.00 0.00 0.00 0.00 0.00 0.00 0.00 0.00 0.00 0.00 0.00 0.00 0.01 0.03 0.05 0.08 0.11 0.13 0.13 0.12 0.08 0.07
0.05 0.10 0.11 0.07 0.06 0.04 0.04 0.04 0.02 0.02 0.00 0.01 0.01 0.01 0.01 0.01 0.01 0.01 0.03 0.02 0.01 0.01 0.00 0.00 0.00 0.01 0.00 0.00 0.00 0.00 0.00 0.00 0.00 0.00 0.00 0.00 0.00 0.00 0.00 0.00 0.00 0.00 0.00 0.00 0.01 0.01 0.01 0.04 0.08 0.09 0.11 0.16 0.16 0.12
0.08 0.08 0.07 0.04 0.03 0.04 0.03 0.03 0.02 0.01 0.01 0.03 0.01 0.00 0.01 0.02 0.03 0.03 0.02 0.02 0.03 0.03 0.01 0.02 0.01 0.00 0.00 0.00 0.00 0.00 0.00 0.00 0.00 0.00 0.00 0.00 0.00 0.00 0.00 0.00 0.00 0.00 0.00 0.00 0.00 0.01 0.01 0.01 0.03 0.08 0.11 0.16 0.24 0.27

GFSWCAN_prec_precacc12_252.txt.gz
Total_Precipitation_Accumulation
0.02 0.02 0.02 0.02 0.03 0.03 0.03 0.03 0.02 0.03 0.03 0.03 0.01 0.01 0.02 0.02 0.05 0.07 0.03 0.01 0.10 0.15 0.03 0.00 0.00 0.01 0.02 0.04 0.05 0.01 0.05 0.03 0.05 0.11 0.09 0.11 0.10 0.19 0.04 0.01 0.00 0.01 0.08 0.07 0.07 0.08 0.02 0.01 0.01 0.04 0.09 0.04 0.02 0.00
0.02 0.02 0.02 0.02 0.04 0.03 0.02 0.02 0.01 0.02 0.01 0.02 0.02 0.02 0.03 0.03 0.05 0.08 0.03 0.00 0.02 0.17 0.06 0.00 0.00 0.00 0.00 0.01 0.03 0.05 0.06 0.04 0.10 0.17 0.17 0.18 0.15 0.10 0.07 0.10 0.08 0.12 0.17 0.19 0.09 0.02 0.01 0.03 0.01 0.01 0.03 0.01 0.00 0.00
0.02 0.02 0.02 0.03 0.03 0.02 0.01 0.01 0.01 0.01 0.02 0.02 0.02 0.03 0.03 0.03 0.04 0.07 0.02 0.00 0.06 0.09 0.02 0.00 0.00 0.00 0.00 0.00 0.00 0.06 0.02 0.01 0.02 0.03 0.16 0.13 0.10 0.02 0.02 0.02 0.02 0.06 0.14 0.34 0.21 0.08 0.09 0.08 0.02 0.00 0.01 0.00 0.00 0.00
0.03 0.02 0.02 0.02 0.01 0.02 0.03 0.03 0.03 0.03 0.03 0.02 0.02 0.03 0.02 0.02 0.03 0.06 0.02 0.01 0.07 0.14 0.09 0.00 0.00 0.00 0.00 0.00 0.00 0.02 0.01 0.04 0.08 0.12 0.39 0.31 0.16 0.06 0.03 0.01 0.00 0.00 0.01 0.00 0.01 0.00 0.02 0.03 0.03 0.00 0.00 0.00 0.00 0.00
0.02 0.02 0.03 0.03 0.03 0.03 0.02 0.02 0.02 0.01 0.01 0.01 0.02 0.02 0.03 0.04 0.06 0.04 0.01 0.02 0.02 0.09 0.05 0.01 0.00 0.00 0.00 0.00 0.00 0.01 0.04 0.06 0.15 0.35 0.34 0.11 0.01 0.06 0.03 0.01 0.00 0.00 0.00 0.00 0.00 0.01 0.02 0.01 0.01 0.00 0.00 0.00 0.00 0.00
0.01 0.01 0.02 0.02 0.03 0.03 0.03 0.03 0.03 0.03 0.02 0.02 0.02 0.02 0.03 0.04 0.04 0.02 0.01 0.02 0.03 0.07 0.25 0.05 0.00 0.00 0.00 0.00 0.00 0.01 0.02 0.04 0.16 0.32 0.19 0.05 0.01 0.12 0.13 0.01 0.00 0.00 0.00 0.00 0.00 0.00 0.00 0.00 0.00 0.00 0.00 0.00 0.00 0.00
0.00 0.01 0.01 0.01 0.01 0.02 0.02 0.03 0.03 0.03 0.03 0.02 0.01 0.02 0.03 0.08 0.04 0.02 0.01 0.04 0.07 0.24 0.28 0.07 0.00 0.01 0.03 0.00 0.00 0.00 0.00 0.00 0.02 0.10 0.09 0.03 0.01 0.14 0.14 0.02 0.00 0.00 0.00 0.00 0.01 0.00 0.00 0.00 0.00 0.00 0.00 0.00 0.00 0.00
0.00 0.00 0.00 0.00 0.01 0.01 0.01 0.01 0.01 0.02 0.02 0.02 0.02 0.02 0.04 0.08 0.08 0.05 0.00 0.00 0.04 0.16 0.14 0.06 0.01 0.03 0.01 0.00 0.00 0.01 0.02 0.06 0.09 0.07 0.04 0.01 0.02 0.09 0.09 0.00 0.00 0.03 0.04 0.03 0.02 0.00 0.00 0.00 0.00 0.00 0.00 0.00 0.00 0.00
0.01 0.01 0.01 0.00 0.01 0.01 0.01 0.01 0.01 0.01 0.01 0.02 0.02 0.03 0.03 0.03 0.02 0.00 0.00 0.01 0.04 0.06 0.09 0.08 0.02 0.02 0.04 0.07 0.08 0.10 0.12 0.18 0.12 0.10 0.01 0.02 0.03 0.06 0.01 0.03 0.07 0.07 0.05 0.03 0.01 0.04 0.06 0.05 0.01 0.00 0.00 0.00 0.00 0.00
0.01 0.01 0.01 0.00 0.00 0.00 0.01 0.01 0.01 0.00 0.01 0.04 0.02 0.01 0.02 0.01 0.01 0.01 0.07 0.15 0.29 0.29 0.20 0.05 0.00 0.01 0.03 0.09 0.18 0.28 0.31 0.16 0.11 0.02 0.01 0.03 0.01 0.01 0.03 0.04 0.03 0.02 0.03 0.02 0.01 0.01 0.00 0.00 0.00 0.00 0.00 0.00 0.00 0.00
0.02 0.02 0.02 0.01 0.00 0.01 0.01 0.01 0.01 0.01 0.00 0.02 0.07 0.08 0.01 0.02 0.05 0.07 0.08 0.14 0.07 0.13 0.07 0.01 0.00 0.00 0.00 0.01 0.02 0.05 0.05 0.04 0.05 0.02 0.05 0.08 0.09 0.19 0.26 0.21 0.13 0.07 0.01 0.00 0.00 0.00 0.00 0.00 0.00 0.00 0.00 0.00 0.00 0.00
0.03 0.03 0.02 0.02 0.01 0.01 0.01 0.01 0.01 0.01 0.02 0.13 0.14 0.08 0.01 0.02 0.06 0.04 0.04 0.03 0.03 0.01 0.01 0.01 0.02 0.06 0.06 0.10 0.17 0.11 0.06 0.03 0.02 0.06 0.11 0.06 0.08 0.01 0.00 0.00 0.00 0.00 0.00 0.00 0.00 0.00 0.00 0.00 0.00 0.00 0.00 0.00 0.00 0.00
0.03 0.03 0.02 0.02 0.01 0.01 0.02 0.02 0.03 0.01 0.01 0.02 0.06 0.05 0.03 0.03 0.06 0.04 0.01 0.00 0.01 0.01 0.04 0.07 0.11 0.10 0.10 0.19 0.35 0.29 0.26 0.08 0.05 0.06 0.04 0.07 0.03 0.00 0.00 0.00 0.00 0.00 0.00 0.00 0.00 0.00 0.00 0.00 0.00 0.00 0.00 0.00 0.00 0.00
0.03 0.03 0.02 0.02 0.02 0.02 0.03 0.03 0.05 0.07 0.04 0.06 0.09 0.06 0.02 0.01 0.00 0.00 0.00 0.00 0.02 0.03 0.06 0.14 0.17 0.19 0.17 0.21 0.18 0.15 0.09 0.06 0.04 0.02 0.05 0.07 0.01 0.00 0.00 0.00 0.00 0.00 0.00 0.00 0.00 0.00 0.00 0.00 0.00 0.00 0.00 0.00 0.02 0.02
0.03 0.03 0.01 0.02 0.03 0.04 0.02 0.02 0.05 0.06 0.06 0.06 0.05 0.03 0.00 0.00 0.00 0.00 0.01 0.01 0.02 0.04 0.03 0.03 0.02 0.02 0.03 0.04 0.03 0.03 0.03 0.02 0.02 0.04 0.03 0.00 0.00 0.00 0.00 0.00 0.00 0.00 0.00 0.00 0.00 0.00 0.00 0.00 0.00 0.00 0.01 0.02 0.03 0.02
0.03 0.02 0.00 0.00 0.02 0.02 0.01 0.01 0.09 0.17 0.14 0.05 0.02 0.01 0.00 0.00 0.00 0.01 0.01 0.00 0.01 0.02 0.01 0.01 0.02 0.02 0.03 0.03 0.03 0.01 0.01 0.01 0.02 0.01 0.00 0.00 0.00 0.00 0.00 0.00 0.00 0.00 0.00 0.00 0.00 0.00 0.00 0.01 0.01 0.02 0.02 0.02 0.01 0.02
0.07 0.04 0.01 0.02 0.02 0.03 0.03 0.02 0.09 0.41 0.27 0.07 0.01 0.00 0.00 0.00 0.00 0.00 0.01 0.01 0.02 0.04 0.03 0.06 0.07 0.02 0.03 0.04 0.04 0.03 0.03 0.01 0.01 0.01 0.00 0.00 0.00 0.01 0.00 0.00 0.00 0.00 0.00 0.00 0.00 0.00 0.01 0.01 0.01 0.00 0.01 0.00 0.00 0.01
0.08 0.01 0.03 0.03 0.03 0.06 0.04 0.05 0.06 0.06 0.11 0.05 0.02 0.00 0.00 0.00 0.00 0.01 0.01 0.01 0.02 0.04 0.06 0.10 0.10 0.09 0.08 0.06 0.06 0.02 0.02 0.02 0.03 0.03 0.01 0.00 0.01 0.00 0.00 0.00 0.00 0.00 0.00 0.00 0.00 0.01 0.01 0.01 0.01 0.01 0.01 0.01 0.00 0.00
0.08 0.06 0.04 0.04 0.06 0.12 0.04 0.04 0.06 0.03 0.00 0.00 0.00 0.00 0.00 0.00 0.00 0.01 0.01 0.02 0.03 0.05 0.10 0.12 0.09 0.04 0.02 0.03 0.02 0.01 0.00 0.00 0.00 0.00 0.00 0.01 0.00 0.00 0.00 0.00 0.00 0.00 0.00 0.01 0.01 0.02 0.03 0.04 0.03 0.01 0.02 0.02 0.02 0.02
0.10 0.11 0.09 0.11 0.22 0.21 0.07 0.01 0.05 0.05 0.01 0.00 0.00 0.00 0.00 0.00 0.00 0.01 0.01 0.02 0.04 0.07 0.11 0.10 0.04 0.01 0.00 0.00 0.01 0.01 0.00 0.00 0.00 0.00 0.00 0.00 0.00 0.00 0.00 0.00 0.01 0.01 0.02 0.01 0.00 0.01 0.01 0.01 0.00 0.00 0.01 0.04 0.05 0.05
0.06 0.02 0.09 0.16 0.35 0.27 0.07 0.02 0.03 0.01 0.01 0.01 0.00 0.00 0.00 0.01 0.02 0.02 0.02 0.02 0.05 0.07 0.04 0.00 0.00 0.00 0.00 0.00 0.00 0.00 0.00 0.00 0.00 0.00 0.00 0.00 0.00 0.00 0.00 0.00 0.01 0.02 0.01 0.01 0.00 0.01 0.01 0.01 0.01 0.01 0.01 0.01 0.04 0.07
0.05 0.06 0.07 0.12 0.22 0.19 0.13 0.01 0.00 0.01 0.02 0.01 0.01 0.02 0.02 0.02 0.03 0.04 0.05 0.09 0.06 0.01 0.00 0.00 0.00 0.00 0.00 0.00 0.00 0.00 0.00 0.00 0.00 0.01 0.00 0.00 0.00 0.00 0.01 0.02 0.03 0.00 0.00 0.01 0.02 0.04 0.02 0.01 0.01 0.01 0.01 0.01 0.01 0.01
0.13 0.16 0.16 0.10 0.12 0.12 0.04 0.01 0.01 0.00 0.01 0.00 0.00 0.01 0.01 0.02 0.03 0.06 0.11 0.09 0.03 0.01 0.00 0.00 0.00 0.00 0.01 0.01 0.01 0.01 0.01 0.00 0.01 0.01 0.00 0.00 0.00 0.00 0.02 0.06 0.01 0.00 0.00 0.00 0.02 0.03 0.03 0.02 0.01 0.01 0.01 0.00 0.01 0.00
0.24 0.22 0.21 0.13 0.04 0.01 0.01 0.02 0.03 0.04 0.03 0.02 0.02 0.01 0.02 0.05 0.05 0.05 0.02 0.01 0.00 0.00 0.00 0.00 0.00 0.01 0.02 0.03 0.04 0.03 0.02 0.01 0.01 0.01 0.00 0.00 0.00 0.00 0.02 0.05 0.01 0.00 0.01 0.01 0.01 0.01 0.02 0.02 0.02 0.01 0.01 0.01 0.01 0.01
0.50 0.29 0.08 0.09 0.06 0.03 0.01 0.00 0.00 0.01 0.01 0.02 0.05 0.06 0.06 0.06 0.11 0.11 0.03 0.01 0.00 0.00 0.00 0.01 0.01 0.02 0.04 0.04 0.03 0.01 0.00 0.00 0.01 0.01 0.00 0.00 0.00 0.00 0.00 0.01 0.02 0.00 0.00 0.01 0.01 0.01 0.01 0.02 0.03 0.03 0.01 0.01 0.01 0.02
0.26 0.10 0.05 0.01 0.01 0.01 0.02 0.02 0.01 0.01 0.02 0.02 0.03 0.05 0.08 0.12 0.11 0.08 0.03 0.01 0.00 0.00 0.00 0.00 0.01 0.01 0.03 0.02 0.03 0.01 0.00 0.00 0.01 0.01 0.00 0.00 0.00 0.00 0.00 0.00 0.00 0.00 0.00 0.01 0.02 0.02 0.01 0.01 0.02 0.03 0.03 0.01 0.01 0.02
0.11 0.05 0.02 0.00 0.00 0.02 0.03 0.04 0.04 0.05 0.04 0.02 0.03 0.03 0.05 0.07 0.08 0.07 0.03 0.02 0.01 0.00 0.00 0.00 0.01 0.02 0.01 0.00 0.00 0.00 0.00 0.00 0.00 0.00 0.00 0.00 0.00 0.00 0.00 0.00 0.00 0.00 0.00 0.00 0.01 0.02 0.02 0.02 0.02 0.02 0.05 0.04 0.02 0.02
0.08 0.01 0.01 0.01 0.01 0.01 0.03 0.04 0.08 0.08 0.07 0.09 0.16 0.16 0.14 0.08 0.05 0.03 0.01 0.01 0.00 0.00 0.00 0.00 0.00 0.00 0.00 0.00 0.00 0.00 0.00 0.00 0.00 0.01 0.02 0.04 0.01 0.00 0.00 0.00 0.00 0.00 0.00 0.00 0.00 0.01 0.02 0.02 0.02 0.02 0.03 0.05 0.05 0.02
0.02 0.02 0.02 0.04 0.03 0.03 0.05 0.07 0.06 0.03 0.02 0.04 0.07 0.08 0.10 0.08 0.07 0.06 0.03 0.00 0.00 0.00 0.00 0.00 0.00 0.00 0.00 0.00 0.00 0.00 0.00 0.00 0.00 0.01 0.01 0.03 0.02 0.00 0.00 0.00 0.00 0.00 0.00 0.00 0.00 0.00 0.01 0.01 0.02 0.03 0.03 0.05 0.06 0.04
0.00 0.04 0.10 0.08 0.06 0.05 0.04 0.02 0.03 0.03 0.03 0.04 0.05 0.05 0.04 0.03 0.04 0.04 0.01 0.00 0.00 0.00 0.00 0.00 0.00 0.00 0.00 0.00 0.00 0.00 0.00 0.00 0.00 0.00 0.00 0.00 0.00 0.00 0.00 0.00 0.00 0.00 0.00 0.00 0.00 0.00 0.00 0.00 0.01 0.02 0.03 0.04 0.05 0.04
0.03 0.06 0.11 0.09 0.07 0.06 0.04 0.02 0.01 0.01 0.01 0.02 0.02 0.02 0.01 0.01 0.01 0.01 0.00 0.01 0.01 0.00 0.00 0.00 0.00 0.00 0.00 0.00 0.00 0.00 0.00 0.00 0.00 0.00 0.00 0.00 0.00 0.00 0.00 0.00 0.00 0.00 0.00 0.00 0.00 0.00 0.00 0.00 0.01 0.02 0.03 0.04 0.06 0.06
0.03 0.08 0.10 0.06 0.04 0.02 0.02 0.04 0.05 0.04 0.02 0.02 0.02 0.01 0.01 0.00 0.00 0.00 0.02 0.01 0.00 0.00 0.00 0.00 0.00 0.00 0.00 0.00 0.00 0.00 0.00 0.00 0.00 0.00 0.00 0.00 0.00 0.00 0.00 0.00 0.00 0.00 0.00 0.00 0.00 0.00 0.00 0.00 0.00 0.01 0.02 0.03 0.06 0.08
0.07 0.06 0.06 0.05 0.03 0.03 0.04 0.06 0.04 0.04 0.02 0.03 0.01 0.00 0.00 0.01 0.01 0.01 0.02 0.02 0.01 0.01 0.00 0.00 0.00 0.00 0.00 0.00 0.00 0.00 0.00 0.00 0.00 0.00 0.00 0.00 0.00 0.00 0.00 0.00 0.00 0.00 0.00 0.00 0.00 0.00 0.00 0.00 0.00 0.00 0.01 0.02 0.04 0.10

GFSWCAN_prec_precacc12_255.txt.gz
Total_Precipitation_Accumulation
0.01 0.01 0.01 0.01 0.02 0.03 0.03 0.02 0.02 0.03 0.03 0.03 0.02 0.02 0.02 0.02 0.05 0.07 0.03 0.01 0.09 0.14 0.03 0.00 0.00 0.00 0.01 0.03 0.04 0.01 0.03 0.02 0.03 0.07 0.07 0.09 0.09 0.18 0.03 0.00 0.00 0.00 0.05 0.06 0.07 0.07 0.02 0.01 0.01 0.04 0.09 0.04 0.02 0.03
0.02 0.01 0.01 0.02 0.03 0.03 0.02 0.02 0.02 0.02 0.01 0.01 0.02 0.02 0.03 0.03 0.05 0.08 0.03 0.00 0.02 0.16 0.05 0.00 0.00 0.00 0.00 0.00 0.02 0.06 0.04 0.03 0.05 0.05 0.08 0.07 0.04 0.03 0.01 0.02 0.04 0.09 0.19 0.19 0.18 0.06 0.00 0.02 0.01 0.01 0.03 0.01 0.01 0.05
0.02 0.02 0.02 0.02 0.02 0.02 0.01 0.01 0.01 0.01 0.02 0.02 0.02 0.02 0.02 0.03 0.04 0.08 0.02 0.03 0.08 0.13 0.02 0.00 0.00 0.00 0.00 0.00 0.00 0.02 0.01 0.00 0.00 0.01 0.09 0.06 0.04 0.01 0.01 0.00 0.01 0.05 0.12 0.22 0.12 0.06 0.08 0.07 0.02 0.00 0.01 0.00 0.00 0.03
0.02 0.02 0.02 0.02 0.01 0.02 0.03 0.03 0.03 0.03 0.03 0.02 0.02 0.02 0.02 0.03 0.03 0.05 0.01 0.02 0.05 0.12 0.08 0.00 0.00 0.00 0.00 0.00 0.00 0.00 0.00 0.00 0.01 0.06 0.26 0.17 0.07 0.03 0.02 0.00 0.00 0.00 0.00 0.00 0.00 0.00 0.01 0.02 0.02 0.00 0.00 0.00 0.00 0.00
0.01 0.02 0.02 0.03 0.03 0.03 0.02 0.02 0.01 0.01 0.01 0.01 0.01 0.01 0.01 0.02 0.05 0.04 0.01 0.02 0.03 0.09 0.07 0.01 0.00 0.00 0.00 0.00 0.00 0.00 0.00 0.00 0.05 0.27 0.27 0.09 0.01 0.06 0.03 0.01 0.00 0.00 0.00 0.00 0.00 0.01 0.02 0.01 0.01 0.00 0.00 0.00 0.00 0.00
0.00 0.01 0.01 0.01 0.02 0.03 0.03 0.03 0.03 0.03 0.02 0.02 0.01 0.01 0.03 0.04 0.05 0.01 0.01 0.01 0.03 0.11 0.27 0.04 0.00 0.00 0.00 0.00 0.00 0.00 0.00 0.00 0.10 0.25 0.15 0.05 0.01 0.10 0.11 0.01 0.00 0.00 0.00 0.00 0.00 0.00 0.00 0.00 0.00 0.00 0.00 0.00 0.00 0.00
0.00 0.00 0.00 0.00 0.01 0.01 0.01 0.02 0.03 0.03 0.04 0.03 0.02 0.02 0.02 0.08 0.04 0.00 0.00 0.00 0.02 0.11 0.18 0.04 0.00 0.00 0.00 0.00 0.00 0.00 0.00 0.01 0.03 0.12 0.09 0.03 0.02 0.16 0.13 0.01 0.00 0.00 0.00 0.00 0.01 0.00 0.00 0.00 0.00 0.00 0.00 0.00 0.00 0.00
0.01 0.01 0.00 0.00 0.00 0.00 0.00 0.00 0.01 0.01 0.02 0.02 0.02 0.02 0.03 0.09 0.10 0.11 0.01 0.00 0.01 0.12 0.11 0.03 0.00 0.00 0.00 0.00 0.01 0.01 0.03 0.08 0.12 0.07 0.04 0.01 0.02 0.07 0.06 0.00 0.00 0.01 0.02 0.02 0.02 0.00 0.00 0.00 0.00 0.00 0.00 0.00 0.00 0.00
0.01 0.01 0.01 0.01 0.01 0.00 0.00 0.01 0.01 0.01 0.01 0.02 0.03 0.03 0.03 0.03 0.01 0.00 0.00 0.01 0.01 0.02 0.04 0.04 0.01 0.00 0.02 0.05 0.07 0.12 0.14 0.19 0.14 0.12 0.01 0.03 0.03 0.05 0.01 0.01 0.01 0.03 0.04 0.03 0.01 0.04 0.07 0.06 0.02 0.00 0.00 0.00 0.00 0.00
0.02 0.02 0.01 0.01 0.01 0.00 0.01 0.00 0.01 0.01 0.01 0.04 0.02 0.01 0.01 0.00 0.00 0.01 0.07 0.19 0.37 0.31 0.14 0.04 0.00 0.00 0.00 0.00 0.04 0.16 0.21 0.15 0.10 0.02 0.01 0.04 0.01 0.00 0.01 0.03 0.01 0.01 0.03 0.02 0.01 0.01 0.00 0.00 0.00 0.00 0.00 0.00 0.00 0.00
0.02 0.02 0.02 0.02 0.02 0.01 0.01 0.01 0.01 0.01 0.00 0.01 0.04 0.05 0.00 0.02 0.08 0.08 0.10 0.18 0.09 0.12 0.06 0.01 0.00 0.00 0.00 0.00 0.00 0.00 0.01 0.01 0.04 0.00 0.01 0.03 0.04 0.11 0.15 0.16 0.13 0.07 0.01 0.00 0.00 0.00 0.00 0.00 0.00 0.00 0.00 0.00 0.00 0.00
0.03 0.03 0.03 0.03 0.02 0.01 0.01 0.02 0.02 0.01 0.01 0.14 0.14 0.08 0.02 0.04 0.12 0.11 0.06 0.04 0.03 0.00 0.00 0.00 0.01 0.04 0.02 0.04 0.08 0.07 0.05 0.03 0.02 0.03 0.07 0.02 0.02 0.01 0.00 0.00 0.00 0.00 0.00 0.00 0.00 0.00 0.00 0.00 0.00 0.00 0.00 0.00 0.00 0.00
0.03 0.03 0.03 0.02 0.03 0.02 0.02 0.03 0.05 0.03 0.02 0.01 0.05 0.06 0.04 0.05 0.08 0.06 0.01 0.01 0.00 0.00 0.01 0.02 0.07 0.09 0.09 0.17 0.32 0.29 0.27 0.08 0.05 0.06 0.03 0.01 0.00 0.00 0.00 0.00 0.00 0.00 0.00 0.00 0.00 0.00 0.00 0.00 0.00 0.00 0.00 0.00 0.00 0.00
0.03 0.03 0.04 0.02 0.02 0.04 0.04 0.03 0.06 0.09 0.08 0.05 0.09 0.08 0.03 0.02 0.00 0.00 0.00 0.00 0.00 0.00 0.01 0.06 0.16 0.19 0.16 0.22 0.16 0.16 0.11 0.11 0.09 0.03 0.01 0.01 0.00 0.00 0.00 0.00 0.00 0.00 0.00 0.00 0.00 0.00 0.00 0.00 0.00 0.00 0.00 0.00 0.00 0.00
0.03 0.02 0.02 0.02 0.01 0.02 0.03 0.02 0.06 0.19 0.17 0.05 0.05 0.03 0.00 0.00 0.00 0.00 0.00 0.00 0.00 0.00 0.01 0.02 0.04 0.03 0.03 0.04 0.02 0.02 0.02 0.02 0.00 0.00 0.00 0.00 0.00 0.00 0.00 0.00 0.00 0.00 0.00 0.00 0.00 0.00 0.00 0.00 0.00 0.00 0.00 0.00 0.00 0.00
0.03 0.03 0.00 0.00 0.02 0.03 0.03 0.02 0.07 0.25 0.24 0.06 0.03 0.01 0.00 0.00 0.00 0.00 0.00 0.00 0.00 0.01 0.02 0.02 0.03 0.03 0.04 0.04 0.03 0.01 0.01 0.00 0.00 0.00 0.00 0.00 0.00 0.00 0.00 0.00 0.00 0.00 0.00 0.00 0.00 0.00 0.00 0.00 0.00 0.00 0.00 0.00 0.00 0.00
0.09 0.04 0.02 0.03 0.03 0.04 0.06 0.06 0.07 0.42 0.35 0.11 0.01 0.00 0.00 0.00 0.00 0.00 0.00 0.00 0.01 0.04 0.07 0.07 0.08 0.02 0.01 0.02 0.02 0.01 0.00 0.00 0.00 0.01 0.00 0.00 0.00 0.00 0.00 0.00 0.00 0.00 0.00 0.00 0.00 0.00 0.00 0.00 0.00 0.00 0.00 0.00 0.00 0.00
0.09 0.01 0.03 0.03 0.03 0.07 0.10 0.13 0.08 0.06 0.11 0.08 0.06 0.01 0.00 0.00 0.00 0.00 0.00 0.00 0.00 0.02 0.05 0.09 0.09 0.07 0.04 0.03 0.03 0.01 0.02 0.02 0.03 0.03 0.01 0.00 0.00 0.00 0.00 0.00 0.00 0.00 0.00 0.00 0.00 0.00 0.01 0.01 0.00 0.00 0.00 0.00 0.00 0.00
0.07 0.05 0.04 0.05 0.10 0.15 0.10 0.09 0.06 0.03 0.00 0.00 0.00 0.00 0.00 0.00 0.00 0.00 0.00 0.00 0.01 0.02 0.09 0.12 0.09 0.04 0.00 0.00 0.00 0.00 0.00 0.00 0.00 0.00 0.00 0.00 0.00 0.00 0.00 0.00 0.00 0.00 0.00 0.00 0.00 0.01 0.01 0.01 0.02 0.01 0.00 0.01 0.01 0.00
0.11 0.12 0.10 0.12 0.26 0.29 0.12 0.03 0.03 0.03 0.01 0.00 0.00 0.00 0.00 0.00 0.00 0.00 0.00 0.00 0.02 0.06 0.10 0.10 0.04 0.01 0.00 0.00 0.00 0.00 0.00 0.00 0.00 0.00 0.00 0.00 0.00 0.00 0.00 0.00 0.00 0.01 0.02 0.01 0.00 0.00 0.00 0.00 0.00 0.00 0.01 0.01 0.02 0.02
0.08 0.03 0.10 0.16 0.33 0.31 0.13 0.02 0.01 0.00 0.00 0.01 0.00 0.00 0.00 0.00 0.00 0.00 0.00 0.01 0.04 0.06 0.04 0.00 0.00 0.00 0.00 0.00 0.00 0.00 0.00 0.00 0.00 0.00 0.00 0.00 0.00 0.00 0.00 0.00 0.01 0.02 0.01 0.00 0.00 0.00 0.01 0.01 0.01 0.01 0.01 0.00 0.01 0.02
0.05 0.07 0.08 0.12 0.20 0.19 0.16 0.02 0.00 0.00 0.00 0.00 0.00 0.00 0.00 0.00 0.00 0.00 0.02 0.06 0.05 0.00 0.00 0.00 0.00 0.00 0.00 0.00 0.00 0.00 0.00 0.00 0.00 0.00 0.00 0.00 0.00 0.00 0.00 0.01 0.00 0.00 0.00 0.00 0.01 0.02 0.01 0.01 0.01 0.01 0.01 0.01 0.01 0.00
0.14 0.16 0.17 0.12 0.14 0.13 0.05 0.00 0.00 0.00 0.00 0.00 0.00 0.00 0.00 0.00 0.00 0.03 0.06 0.07 0.03 0.01 0.00 0.00 0.00 0.00 0.01 0.01 0.01 0.01 0.01 0.01 0.02 0.02 0.01 0.01 0.00 0.00 0.01 0.02 0.00 0.00 0.00 0.00 0.01 0.01 0.01 0.01 0.01 0.01 0.01 0.00 0.01 0.00
0.25 0.24 0.19 0.15 0.06 0.02 0.01 0.01 0.02 0.03 0.02 0.01 0.01 0.00 0.00 0.00 0.02 0.04 0.02 0.00 0.00 0.00 0.00 0.00 0.00 0.01 0.02 0.03 0.03 0.03 0.04 0.04 0.06 0.05 0.03 0.01 0.00 0.00 0.01 0.01 0.00 0.00 0.00 0.00 0.00 0.00 0.00 0.00 0.00 0.01 0.01 0.00 0.00 0.01
0.45 0.28 0.12 0.09 0.07 0.02 0.00 0.00 0.00 0.00 0.00 0.01 0.03 0.04 0.02 0.05 0.09 0.10 0.03 0.00 0.00 0.00 0.00 0.01 0.01 0.01 0.02 0.02 0.03 0.02 0.03 0.04 0.04 0.02 0.00 0.00 0.00 0.00 0.00 0.00 0.00 0.00 0.00 0.00 0.00 0.00 0.00 0.00 0.00 0.00 0.01 0.01 0.01 0.01
0.21 0.08 0.07 0.02 0.01 0.00 0.00 0.00 0.00 0.01 0.01 0.01 0.00 0.00 0.03 0.07 0.08 0.06 0.02 0.00 0.00 0.00 0.00 0.00 0.00 0.01 0.02 0.03 0.03 0.02 0.02 0.01 0.00 0.00 0.00 0.00 0.00 0.00 0.00 0.00 0.00 0.00 0.00 0.00 0.01 0.01 0.00 0.00 0.01 0.01 0.00 0.00 0.01 0.02
0.11 0.04 0.02 0.00 0.00 0.00 0.01 0.01 0.01 0.02 0.02 0.01 0.00 0.00 0.02 0.06 0.07 0.05 0.03 0.03 0.01 0.00 0.00 0.00 0.01 0.03 0.02 0.02 0.01 0.00 0.00 0.00 0.00 0.00 0.00 0.00 0.00 0.00 0.00 0.00 0.00 0.00 0.00 0.00 0.00 0.00 0.01 0.01 0.00 0.01 0.01 0.00 0.01 0.02
0.09 0.02 0.01 0.00 0.00 0.00 0.00 0.02 0.06 0.07 0.05 0.06 0.11 0.12 0.13 0.09 0.05 0.03 0.04 0.02 0.02 0.02 0.01 0.01 0.01 0.01 0.01 0.00 0.00 0.00 0.00 0.00 0.00 0.01 0.02 0.01 0.00 0.00 0.00 0.00 0.00 0.00 0.00 0.00 0.00 0.00 0.00 0.01 0.01 0.01 0.01 0.01 0.01 0.01
0.01 0.00 0.00 0.01 0.02 0.02 0.02 0.04 0.04 0.02 0.02 0.04 0.06 0.07 0.10 0.08 0.06 0.06 0.04 0.03 0.02 0.03 0.02 0.01 0.01 0.00 0.01 0.00 0.00 0.00 0.00 0.00 0.00 0.01 0.00 0.01 0.00 0.00 0.00 0.00 0.00 0.00 0.00 0.00 0.00 0.00 0.00 0.00 0.00 0.01 0.01 0.02 0.01 0.02
0.00 0.00 0.00 0.01 0.03 0.04 0.03 0.02 0.02 0.03 0.03 0.04 0.05 0.05 0.04 0.03 0.03 0.03 0.03 0.02 0.01 0.00 0.00 0.00 0.00 0.00 0.00 0.00 0.00 0.00 0.00 0.00 0.00 0.00 0.00 0.00 0.00 0.00 0.00 0.00 0.00 0.00 0.00 0.00 0.00 0.00 0.00 0.00 0.00 0.00 0.00 0.01 0.01 0.02
0.00 0.00 0.00 0.03 0.06 0.05 0.03 0.02 0.01 0.01 0.01 0.02 0.01 0.01 0.01 0.01 0.01 0.01 0.00 0.00 0.00 0.00 0.00 0.00 0.00 0.00 0.00 0.00 0.00 0.00 0.00 0.00 0.00 0.00 0.00 0.00 0.00 0.00 0.00 0.00 0.00 0.00 0.00 0.00 0.00 0.00 0.00 0.00 0.00 0.00 0.00 0.01 0.02 0.03
0.00 0.03 0.07 0.05 0.04 0.02 0.02 0.03 0.04 0.03 0.02 0.02 0.02 0.01 0.01 0.00 0.00 0.00 0.01 0.00 0.00 0.00 0.00 0.00 0.00 0.00 0.00 0.00 0.00 0.00 0.00 0.00 0.00 0.00 0.00 0.00 0.00 0.00 0.00 0.00 0.00 0.00 0.00 0.00 0.00 0.00 0.00 0.00 0.00 0.00 0.00 0.00 0.01 0.03
0.04 0.03 0.06 0.05 0.03 0.03 0.03 0.05 0.04 0.03 0.01 0.01 0.01 0.00 0.00 0.00 0.00 0.01 0.02 0.02 0.00 0.00 0.00 0.00 0.00 0.00 0.00 0.00 0.00 0.00 0.00 0.00 0.00 0.00 0.00 0.00 0.00 0.00 0.00 0.00 0.00 0.00 0.00 0.00 0.00 0.00 0.00 0.00 0.00 0.00 0.00 0.00 0.01 0.03